Time,TemperatureF,DewpointF,PressureIn,WindDirection,WindDirectionDegrees,WindSpeedMPH,WindSpeedGustMPH,Humidity,HourlyPrecipIn,Conditions,Clouds,dailyrainin,SolarRadiationWatts/m^2,SoftwareType,DateUTC
2013-10-26 00:00:00,50.4,32.9,29.90,South,173,11.0,11.0,51,0.00,,,0.00,0,Wunderground v.1.15,2013-10-26 05:00:00,
2013-10-26 00:01:00,50.4,32.9,29.90,SSW,194,11.0,15.0,51,0.00,,,0.00,0,Wunderground v.1.15,2013-10-26 05:01:00,
2013-10-26 00:02:00,50.4,32.9,29.90,SW,230,11.0,15.0,51,0.00,,,0.00,0,Wunderground v.1.15,2013-10-26 05:02:00,
2013-10-26 00:03:00,50.4,32.9,29.90,South,186,11.0,15.0,51,0.00,,,0.00,0,Wunderground v.1.15,2013-10-26 05:03:00,
2013-10-26 00:04:00,50.4,32.9,29.89,WSW,240,11.0,15.0,51,0.00,,,0.00,0,Wunderground v.1.15,2013-10-26 05:04:00,
2013-10-26 00:05:00,50.4,32.9,29.90,SE,131,11.0,15.0,51,0.00,,,0.00,0,Wunderground v.1.15,2013-10-26 05:05:00,
2013-10-26 00:08:00,50.4,32.9,29.90,SSW,213,12.0,15.0,51,0.00,,,0.00,0,Wunderground v.1.15,2013-10-26 05:08:00,
2013-10-26 00:09:00,50.4,32.9,29.89,South,186,12.0,15.0,51,0.00,,,0.00,0,Wunderground v.1.15,2013-10-26 05:09:00,
2013-10-26 00:10:00,50.4,32.9,29.89,SSW,200,12.0,14.0,51,0.00,,,0.00,0,Wunderground v.1.15,2013-10-26 05:10:00,
2013-10-26 00:11:00,50.4,32.9,29.89,SW,219,12.0,14.0,51,0.00,,,0.00,0,Wunderground v.1.15,2013-10-26 05:11:00,
2013-10-26 00:14:00,50.4,32.9,29.89,SSW,200,12.0,16.0,51,0.00,,,0.00,0,Wunderground v.1.15,2013-10-26 05:14:00,
2013-10-26 00:15:00,50.4,32.9,29.89,SW,219,12.0,16.0,51,0.00,,,0.00,0,Wunderground v.1.15,2013-10-26 05:15:00,
2013-10-26 00:17:00,50.4,32.9,29.89,South,170,11.0,16.0,51,0.00,,,0.00,0,Wunderground v.1.15,2013-10-26 05:17:00,
2013-10-26 00:20:00,50.4,32.9,29.89,SSW,200,10.0,10.0,51,0.00,,,0.00,0,Wunderground v.1.15,2013-10-26 05:20:00,
2013-10-26 00:21:00,50.4,32.9,29.89,SSW,213,10.0,10.0,51,0.00,,,0.00,0,Wunderground v.1.15,2013-10-26 05:21:00,
2013-10-26 00:22:00,50.4,32.9,29.89,SSW,194,9.0,16.0,51,0.00,,,0.00,0,Wunderground v.1.15,2013-10-26 05:22:00,
2013-10-26 00:24:00,50.4,32.9,29.89,SSW,209,9.0,16.0,51,0.00,,,0.00,0,Wunderground v.1.15,2013-10-26 05:24:00,
2013-10-26 00:26:00,50.4,32.9,29.89,SW,222,9.0,16.0,51,0.00,,,0.00,0,Wunderground v.1.15,2013-10-26 05:26:00,
2013-10-26 00:27:00,50.4,32.9,29.89,SSW,213,9.0,16.0,51,0.00,,,0.00,0,Wunderground v.1.15,2013-10-26 05:27:00,
2013-10-26 00:29:00,50.4,32.9,29.89,SSW,199,10.0,16.0,51,0.00,,,0.00,0,Wunderground v.1.15,2013-10-26 05:29:00,
2013-10-26 00:30:00,50.5,33.0,29.89,SW,228,11.0,11.0,51,0.00,,,0.00,0,Wunderground v.1.15,2013-10-26 05:30:00,
2013-10-26 00:31:00,50.5,33.0,29.88,SSW,209,11.0,11.0,51,0.00,,,0.00,0,Wunderground v.1.15,2013-10-26 05:31:00,
2013-10-26 00:33:00,50.5,33.0,29.88,SSW,198,11.0,12.0,51,0.00,,,0.00,0,Wunderground v.1.15,2013-10-26 05:33:00,
2013-10-26 00:36:00,50.5,33.0,29.88,SSW,202,12.0,14.0,51,0.00,,,0.00,0,Wunderground v.1.15,2013-10-26 05:36:00,
2013-10-26 00:39:00,50.5,33.0,29.87,SSW,194,11.0,15.0,51,0.00,,,0.00,0,Wunderground v.1.15,2013-10-26 05:39:00,
2013-10-26 00:41:00,50.5,33.5,29.88,SSW,209,11.0,11.0,52,0.00,,,0.00,0,Wunderground v.1.15,2013-10-26 05:41:00,
2013-10-26 00:42:00,50.5,33.5,29.87,South,181,10.0,11.0,52,0.00,,,0.00,0,Wunderground v.1.15,2013-10-26 05:42:00,
2013-10-26 00:44:00,50.5,33.5,29.87,South,181,9.0,15.0,52,0.00,,,0.00,0,Wunderground v.1.15,2013-10-26 05:44:00,
2013-10-26 00:47:00,50.5,33.5,29.87,SSW,206,9.0,15.0,52,0.00,,,0.00,0,Wunderground v.1.15,2013-10-26 05:47:00,
2013-10-26 00:48:00,50.5,33.0,29.87,SSW,192,9.0,15.0,51,0.00,,,0.00,0,Wunderground v.1.15,2013-10-26 05:48:00,
2013-10-26 00:49:00,50.5,33.0,29.87,South,185,10.0,15.0,51,0.00,,,0.00,0,Wunderground v.1.15,2013-10-26 05:49:00,
2013-10-26 00:53:00,50.5,33.5,29.88,South,191,9.0,10.0,52,0.00,,,0.00,0,Wunderground v.1.15,2013-10-26 05:53:00,
2013-10-26 00:54:00,50.5,33.5,29.87,SSW,212,9.0,10.0,52,0.00,,,0.00,0,Wunderground v.1.15,2013-10-26 05:54:00,
2013-10-26 00:56:00,50.5,33.5,29.87,SSW,198,9.0,10.0,52,0.00,,,0.00,0,Wunderground v.1.15,2013-10-26 05:56:00,
2013-10-26 00:59:00,50.5,33.5,29.87,SSW,208,7.0,10.0,52,0.00,,,0.00,0,Wunderground v.1.15,2013-10-26 05:59:00,
2013-10-26 01:01:00,50.5,33.5,29.87,SSW,208,7.0,8.0,52,0.00,,,0.00,0,Wunderground v.1.15,2013-10-26 06:01:00,
2013-10-26 01:02:00,50.6,33.6,29.87,SSW,204,7.0,8.0,52,0.00,,,0.00,0,Wunderground v.1.15,2013-10-26 06:02:00,
2013-10-26 01:04:00,50.6,33.6,29.87,SSW,201,8.0,11.0,52,0.00,,,0.00,0,Wunderground v.1.15,2013-10-26 06:04:00,
2013-10-26 01:07:00,50.6,33.6,29.87,SSW,207,7.0,15.0,52,0.00,,,0.00,0,Wunderground v.1.15,2013-10-26 06:07:00,
2013-10-26 01:08:00,50.6,33.6,29.87,SSW,200,7.0,15.0,52,0.00,,,0.00,0,Wunderground v.1.15,2013-10-26 06:08:00,
2013-10-26 01:09:00,50.6,33.6,29.87,SW,221,7.0,15.0,52,0.00,,,0.00,0,Wunderground v.1.15,2013-10-26 06:09:00,
2013-10-26 01:14:00,50.6,33.6,29.87,SSW,204,7.0,12.0,52,0.00,,,0.00,0,Wunderground v.1.15,2013-10-26 06:14:00,
2013-10-26 01:15:00,50.6,33.6,29.86,SW,227,7.0,12.0,52,0.00,,,0.00,0,Wunderground v.1.15,2013-10-26 06:15:00,
2013-10-26 01:16:00,50.6,33.6,29.86,SSW,205,7.0,12.0,52,0.00,,,0.00,0,Wunderground v.1.15,2013-10-26 06:16:00,
2013-10-26 01:19:00,50.6,34.1,29.86,SW,236,6.0,17.0,53,0.00,,,0.00,0,Wunderground v.1.15,2013-10-26 06:19:00,
2013-10-26 01:20:00,50.6,33.6,29.86,SSW,207,7.0,12.0,52,0.00,,,0.00,0,Wunderground v.1.15,2013-10-26 06:20:00,
2013-10-26 01:22:00,50.6,33.6,29.86,SSW,206,6.0,12.0,52,0.00,,,0.00,0,Wunderground v.1.15,2013-10-26 06:22:00,
2013-10-26 01:25:00,50.6,33.6,29.86,South,184,6.0,12.0,52,0.00,,,0.00,0,Wunderground v.1.15,2013-10-26 06:25:00,
2013-10-26 01:29:00,50.7,33.7,29.86,WSW,242,7.0,12.0,52,0.00,,,0.00,0,Wunderground v.1.15,2013-10-26 06:29:00,
2013-10-26 01:30:00,50.7,34.2,29.86,WSW,257,7.0,7.0,53,0.00,,,0.00,0,Wunderground v.1.15,2013-10-26 06:30:00,
2013-10-26 01:31:00,50.7,34.2,29.86,SSW,213,7.0,7.0,53,0.00,,,0.00,0,Wunderground v.1.15,2013-10-26 06:31:00,
2013-10-26 01:36:00,50.8,34.3,29.86,SW,225,8.0,13.0,53,0.00,,,0.00,0,Wunderground v.1.15,2013-10-26 06:36:00,
2013-10-26 01:37:00,50.8,34.3,29.86,WSW,239,8.0,13.0,53,0.00,,,0.00,0,Wunderground v.1.15,2013-10-26 06:37:00,
2013-10-26 01:39:00,50.8,34.3,29.86,SW,225,7.0,13.0,53,0.00,,,0.00,0,Wunderground v.1.15,2013-10-26 06:39:00,
2013-10-26 01:41:00,50.8,34.3,29.86,South,188,7.0,7.0,53,0.00,,,0.00,0,Wunderground v.1.15,2013-10-26 06:41:00,
2013-10-26 01:42:00,50.8,34.3,29.86,SW,219,7.0,7.0,53,0.00,,,0.00,0,Wunderground v.1.15,2013-10-26 06:42:00,
2013-10-26 01:45:00,50.7,34.2,29.86,SW,236,7.0,13.0,53,0.00,,,0.00,0,Wunderground v.1.15,2013-10-26 06:45:00,
2013-10-26 01:49:00,50.7,34.2,29.85,SSW,206,8.0,13.0,53,0.00,,,0.00,0,Wunderground v.1.15,2013-10-26 06:49:00,
2013-10-26 01:50:00,50.6,34.1,29.85,SSW,198,8.0,8.0,53,0.00,,,0.00,0,Wunderground v.1.15,2013-10-26 06:50:00,
2013-10-26 01:51:00,50.6,34.6,29.85,SW,232,8.0,8.0,54,0.00,,,0.00,0,Wunderground v.1.15,2013-10-26 06:51:00,
2013-10-26 01:52:00,50.6,34.6,29.85,SW,228,8.0,8.0,54,0.00,,,0.00,0,Wunderground v.1.15,2013-10-26 06:52:00,
2013-10-26 01:55:00,50.5,34.5,29.85,SSW,203,8.0,8.0,54,0.00,,,0.00,0,Wunderground v.1.15,2013-10-26 06:55:00,
2013-10-26 01:56:00,50.5,34.5,29.85,SW,215,7.0,8.0,54,0.00,,,0.00,0,Wunderground v.1.15,2013-10-26 06:56:00,
2013-10-26 01:58:00,50.4,34.4,29.85,SW,219,6.0,8.0,54,0.00,,,0.00,0,Wunderground v.1.15,2013-10-26 06:58:00,
2013-10-26 02:01:00,50.2,34.6,29.85,WSW,246,6.0,9.0,55,0.00,,,0.00,0,Wunderground v.1.15,2013-10-26 07:01:00,
2013-10-26 02:04:00,50.1,34.5,29.85,SW,227,5.0,9.0,55,0.00,,,0.00,0,Wunderground v.1.15,2013-10-26 07:04:00,
2013-10-26 02:06:00,50.0,34.5,29.85,SW,229,5.0,10.0,55,0.00,,,0.00,0,Wunderground v.1.15,2013-10-26 07:06:00,
2013-10-26 02:07:00,49.9,34.4,29.85,SW,223,5.0,12.0,55,0.00,,,0.00,0,Wunderground v.1.15,2013-10-26 07:07:00,
2013-10-26 02:13:00,49.7,34.6,29.85,West,259,7.0,12.0,56,0.00,,,0.00,0,Wunderground v.1.15,2013-10-26 07:13:00,
2013-10-26 02:14:00,49.7,34.6,29.85,WSW,242,7.0,12.0,56,0.00,,,0.00,0,Wunderground v.1.15,2013-10-26 07:14:00,
2013-10-26 02:15:00,49.7,34.6,29.85,WSW,237,7.0,12.0,56,0.00,,,0.00,0,Wunderground v.1.15,2013-10-26 07:15:00,
2013-10-26 02:16:00,49.7,34.6,29.85,WSW,238,7.0,12.0,56,0.00,,,0.00,0,Wunderground v.1.15,2013-10-26 07:16:00,
2013-10-26 02:19:00,49.6,34.5,29.84,SW,215,7.0,12.0,56,0.00,,,0.00,0,Wunderground v.1.15,2013-10-26 07:19:00,
2013-10-26 02:20:00,49.5,34.4,29.84,SW,214,6.0,6.0,56,0.00,,,0.00,0,Wunderground v.1.15,2013-10-26 07:20:00,
2013-10-26 02:24:00,49.4,34.8,29.84,South,183,6.0,9.0,57,0.00,,,0.00,0,Wunderground v.1.15,2013-10-26 07:24:00,
2013-10-26 02:25:00,49.4,34.8,29.84,SW,218,6.0,9.0,57,0.00,,,0.00,0,Wunderground v.1.15,2013-10-26 07:25:00,
2013-10-26 02:26:00,49.3,34.7,29.84,WSW,240,6.0,9.0,57,0.00,,,0.00,0,Wunderground v.1.15,2013-10-26 07:26:00,
2013-10-26 02:30:00,49.2,34.6,29.84,SW,234,5.0,15.0,57,0.00,,,0.00,0,Wunderground v.1.15,2013-10-26 07:30:00,
2013-10-26 02:32:00,49.1,34.9,29.84,SW,236,5.0,15.0,58,0.00,,,0.00,0,Wunderground v.1.15,2013-10-26 07:32:00,
2013-10-26 02:37:00,49.0,34.9,29.84,SW,216,6.0,15.0,58,0.00,,,0.00,0,Wunderground v.1.15,2013-10-26 07:37:00,
2013-10-26 02:38:00,49.0,34.9,29.84,SW,223,7.0,15.0,58,0.00,,,0.00,0,Wunderground v.1.15,2013-10-26 07:38:00,
2013-10-26 02:40:00,48.9,34.8,29.84,SW,217,8.0,8.0,58,0.00,,,0.00,0,Wunderground v.1.15,2013-10-26 07:40:00,
2013-10-26 02:41:00,48.9,34.8,29.84,SSW,210,7.0,11.0,58,0.00,,,0.00,0,Wunderground v.1.15,2013-10-26 07:41:00,
2013-10-26 02:42:00,48.9,34.8,29.84,WSW,244,8.0,18.0,58,0.00,,,0.00,0,Wunderground v.1.15,2013-10-26 07:42:00,
2013-10-26 02:44:00,48.9,34.8,29.84,SW,226,9.0,18.0,58,0.00,,,0.00,0,Wunderground v.1.15,2013-10-26 07:44:00,
2013-10-26 02:47:00,48.8,34.7,29.84,SW,232,8.0,18.0,58,0.00,,,0.00,0,Wunderground v.1.15,2013-10-26 07:47:00,
2013-10-26 02:49:00,48.7,34.6,29.84,SSW,200,7.0,18.0,58,0.00,,,0.00,0,Wunderground v.1.15,2013-10-26 07:49:00,
2013-10-26 02:50:00,48.7,34.6,29.83,SSW,193,7.0,7.0,58,0.00,,,0.00,0,Wunderground v.1.15,2013-10-26 07:50:00,
2013-10-26 02:51:00,48.6,34.9,29.84,South,180,6.0,7.0,59,0.00,,,0.00,0,Wunderground v.1.15,2013-10-26 07:51:00,
2013-10-26 02:55:00,48.5,34.8,29.83,SW,223,5.0,10.0,59,0.00,,,0.00,0,Wunderground v.1.15,2013-10-26 07:55:00,
2013-10-26 02:56:00,48.4,34.7,29.83,SW,214,5.0,10.0,59,0.00,,,0.00,0,Wunderground v.1.15,2013-10-26 07:56:00,
2013-10-26 02:57:00,48.4,34.7,29.83,SW,225,5.0,10.0,59,0.00,,,0.00,0,Wunderground v.1.15,2013-10-26 07:57:00,
2013-10-26 03:00:00,48.3,34.6,29.83,SW,222,5.0,5.0,59,0.00,,,0.00,0,Wunderground v.1.15,2013-10-26 08:00:00,
2013-10-26 03:02:00,48.3,34.6,29.83,WSW,246,5.0,8.0,59,0.00,,,0.00,0,Wunderground v.1.15,2013-10-26 08:02:00,
2013-10-26 03:04:00,48.2,34.5,29.83,SW,233,5.0,8.0,59,0.00,,,0.00,0,Wunderground v.1.15,2013-10-26 08:04:00,
2013-10-26 03:07:00,48.1,34.9,29.83,SW,230,5.0,9.0,60,0.00,,,0.00,0,Wunderground v.1.15,2013-10-26 08:07:00,
2013-10-26 03:08:00,48.1,34.9,29.83,SW,222,5.0,9.0,60,0.00,,,0.00,0,Wunderground v.1.15,2013-10-26 08:08:00,
2013-10-26 03:09:00,48.0,34.8,29.83,SSW,196,6.0,9.0,60,0.00,,,0.00,0,Wunderground v.1.15,2013-10-26 08:09:00,
2013-10-26 03:13:00,47.9,34.7,29.83,SW,215,7.0,9.0,60,0.00,,,0.00,0,Wunderground v.1.15,2013-10-26 08:13:00,
2013-10-26 03:14:00,47.9,34.7,29.83,South,182,7.0,9.0,60,0.00,,,0.00,0,Wunderground v.1.15,2013-10-26 08:14:00,
2013-10-26 03:15:00,47.9,34.7,29.83,SW,236,7.0,9.0,60,0.00,,,0.00,0,Wunderground v.1.15,2013-10-26 08:15:00,
2013-10-26 03:16:00,47.9,34.7,29.83,SSW,210,7.0,9.0,60,0.00,,,0.00,0,Wunderground v.1.15,2013-10-26 08:16:00,
2013-10-26 03:17:00,47.8,34.6,29.83,South,185,7.0,9.0,60,0.00,,,0.00,0,Wunderground v.1.15,2013-10-26 08:17:00,
2013-10-26 03:20:00,47.8,35.0,29.83,SW,229,6.0,8.0,61,0.00,,,0.00,0,Wunderground v.1.15,2013-10-26 08:20:00,
2013-10-26 03:21:00,47.7,34.9,29.83,South,188,6.0,8.0,61,0.00,,,0.00,0,Wunderground v.1.15,2013-10-26 08:21:00,
2013-10-26 03:23:00,47.7,34.9,29.83,SW,221,5.0,8.0,61,0.00,,,0.00,0,Wunderground v.1.15,2013-10-26 08:23:00,
2013-10-26 03:25:00,47.6,34.8,29.83,WSW,239,5.0,8.0,61,0.00,,,0.00,0,Wunderground v.1.15,2013-10-26 08:25:00,
2013-10-26 03:26:00,47.6,34.8,29.83,SW,219,5.0,8.0,61,0.00,,,0.00,0,Wunderground v.1.15,2013-10-26 08:26:00,
2013-10-26 03:27:00,47.6,34.8,29.83,SW,220,5.0,8.0,61,0.00,,,0.00,0,Wunderground v.1.15,2013-10-26 08:27:00,
2013-10-26 03:28:00,47.5,34.7,29.83,SW,225,5.0,8.0,61,0.00,,,0.00,0,Wunderground v.1.15,2013-10-26 08:28:00,
2013-10-26 03:29:00,47.5,34.7,29.83,SW,215,5.0,8.0,61,0.00,,,0.00,0,Wunderground v.1.15,2013-10-26 08:29:00,
2013-10-26 03:33:00,47.4,34.6,29.83,SW,236,4.0,5.0,61,0.00,,,0.00,0,Wunderground v.1.15,2013-10-26 08:33:00,
2013-10-26 03:34:00,47.3,34.9,29.83,SW,223,4.0,5.0,62,0.00,,,0.00,0,Wunderground v.1.15,2013-10-26 08:34:00,
2013-10-26 03:35:00,47.3,34.9,29.83,SW,224,4.0,5.0,62,0.00,,,0.00,0,Wunderground v.1.15,2013-10-26 08:35:00,
2013-10-26 03:38:00,47.2,34.8,29.83,SW,236,4.0,8.0,62,0.00,,,0.00,0,Wunderground v.1.15,2013-10-26 08:38:00,
2013-10-26 03:40:00,47.2,34.8,29.83,WSW,239,4.0,10.0,62,0.00,,,0.00,0,Wunderground v.1.15,2013-10-26 08:40:00,
2013-10-26 03:41:00,47.2,34.8,29.83,SW,215,5.0,10.0,62,0.00,,,0.00,0,Wunderground v.1.15,2013-10-26 08:41:00,
2013-10-26 03:42:00,47.1,34.7,29.83,SSW,210,5.0,10.0,62,0.00,,,0.00,0,Wunderground v.1.15,2013-10-26 08:42:00,
2013-10-26 03:44:00,47.1,34.7,29.83,SW,223,6.0,10.0,62,0.00,,,0.00,0,Wunderground v.1.15,2013-10-26 08:44:00,
2013-10-26 03:46:00,47.1,34.7,29.83,SW,215,6.0,10.0,62,0.00,,,0.00,0,Wunderground v.1.15,2013-10-26 08:46:00,
2013-10-26 03:49:00,47.0,35.0,29.82,SSW,200,5.0,10.0,63,0.00,,,0.00,0,Wunderground v.1.15,2013-10-26 08:49:00,
2013-10-26 03:50:00,47.0,35.0,29.82,SSW,213,5.0,6.0,63,0.00,,,0.00,0,Wunderground v.1.15,2013-10-26 08:50:00,
2013-10-26 03:51:00,47.0,35.0,29.82,WSW,238,5.0,6.0,63,0.00,,,0.00,0,Wunderground v.1.15,2013-10-26 08:51:00,
2013-10-26 03:53:00,46.9,35.0,29.82,WSW,258,4.0,10.0,63,0.00,,,0.00,0,Wunderground v.1.15,2013-10-26 08:53:00,
2013-10-26 03:54:00,46.9,35.0,29.82,SW,232,5.0,10.0,63,0.00,,,0.00,0,Wunderground v.1.15,2013-10-26 08:54:00,
2013-10-26 03:56:00,46.9,35.0,29.82,SW,223,5.0,10.0,63,0.00,,,0.00,0,Wunderground v.1.15,2013-10-26 08:56:00,
2013-10-26 03:57:00,46.8,34.9,29.82,SSW,196,4.0,10.0,63,0.00,,,0.00,0,Wunderground v.1.15,2013-10-26 08:57:00,
2013-10-26 03:59:00,46.8,35.3,29.82,SSW,206,5.0,10.0,64,0.00,,,0.00,0,Wunderground v.1.15,2013-10-26 08:59:00,
2013-10-26 04:00:00,46.7,35.2,29.82,WSW,256,5.0,6.0,64,0.00,,,0.00,0,Wunderground v.1.15,2013-10-26 09:00:00,
2013-10-26 04:02:00,46.7,35.2,29.82,SW,225,5.0,6.0,64,0.00,,,0.00,0,Wunderground v.1.15,2013-10-26 09:02:00,
2013-10-26 04:04:00,46.6,35.1,29.82,WSW,238,5.0,9.0,64,0.00,,,0.00,0,Wunderground v.1.15,2013-10-26 09:04:00,
2013-10-26 04:05:00,46.6,35.1,29.82,SW,232,4.0,9.0,64,0.00,,,0.00,0,Wunderground v.1.15,2013-10-26 09:05:00,
2013-10-26 04:06:00,46.6,35.1,29.82,SW,217,4.0,9.0,64,0.00,,,0.00,0,Wunderground v.1.15,2013-10-26 09:06:00,
2013-10-26 04:07:00,46.6,35.1,29.82,SW,236,4.0,9.0,64,0.00,,,0.00,0,Wunderground v.1.15,2013-10-26 09:07:00,
2013-10-26 04:11:00,46.5,35.4,29.83,SW,230,4.0,7.0,65,0.00,,,0.00,0,Wunderground v.1.15,2013-10-26 09:11:00,
2013-10-26 04:12:00,46.5,35.4,29.83,SW,233,5.0,7.0,65,0.00,,,0.00,0,Wunderground v.1.15,2013-10-26 09:12:00,
2013-10-26 04:13:00,46.4,35.3,29.83,SW,232,5.0,11.0,65,0.00,,,0.00,0,Wunderground v.1.15,2013-10-26 09:13:00,
2013-10-26 04:14:00,46.5,35.4,29.83,SW,223,5.0,11.0,65,0.00,,,0.00,0,Wunderground v.1.15,2013-10-26 09:14:00,
2013-10-26 04:18:00,46.4,35.3,29.83,WSW,241,5.0,11.0,65,0.00,,,0.00,0,Wunderground v.1.15,2013-10-26 09:18:00,
2013-10-26 04:19:00,46.3,35.2,29.83,West,261,5.0,11.0,65,0.00,,,0.00,0,Wunderground v.1.15,2013-10-26 09:19:00,
2013-10-26 04:22:00,46.3,35.2,29.83,SW,233,5.0,8.0,65,0.00,,,0.00,0,Wunderground v.1.15,2013-10-26 09:22:00,
2013-10-26 04:24:00,46.3,35.2,29.83,SW,215,5.0,8.0,65,0.00,,,0.00,0,Wunderground v.1.15,2013-10-26 09:24:00,
2013-10-26 04:25:00,46.2,35.5,29.83,SW,232,5.0,8.0,66,0.00,,,0.00,0,Wunderground v.1.15,2013-10-26 09:25:00,
2013-10-26 04:26:00,46.2,35.5,29.83,SW,229,5.0,8.0,66,0.00,,,0.00,0,Wunderground v.1.15,2013-10-26 09:26:00,
2013-10-26 04:29:00,46.0,35.3,29.83,SSW,209,4.0,8.0,66,0.00,,,0.00,0,Wunderground v.1.15,2013-10-26 09:29:00,
2013-10-26 04:30:00,46.0,35.3,29.83,WSW,243,4.0,6.0,66,0.00,,,0.00,0,Wunderground v.1.15,2013-10-26 09:30:00,
2013-10-26 04:32:00,46.0,35.3,29.83,SSW,196,5.0,6.0,66,0.00,,,0.00,0,Wunderground v.1.15,2013-10-26 09:32:00,
2013-10-26 04:33:00,46.0,35.3,29.83,SSW,196,4.0,6.0,66,0.00,,,0.00,0,Wunderground v.1.15,2013-10-26 09:33:00,
2013-10-26 04:35:00,45.9,35.2,29.83,SW,217,4.0,6.0,66,0.00,,,0.00,0,Wunderground v.1.15,2013-10-26 09:35:00,
2013-10-26 04:36:00,45.9,35.2,29.83,SSW,210,4.0,6.0,66,0.00,,,0.00,0,Wunderground v.1.15,2013-10-26 09:36:00,
2013-10-26 04:40:00,45.6,35.3,29.83,SSW,210,3.0,3.0,67,0.00,,,0.00,0,Wunderground v.1.15,2013-10-26 09:40:00,
2013-10-26 04:41:00,45.6,35.3,29.83,SSW,210,3.0,3.0,67,0.00,,,0.00,0,Wunderground v.1.15,2013-10-26 09:41:00,
2013-10-26 04:42:00,45.5,35.2,29.83,SW,234,2.0,6.0,67,0.00,,,0.00,0,Wunderground v.1.15,2013-10-26 09:42:00,
2013-10-26 04:43:00,45.5,35.2,29.83,SW,232,3.0,6.0,67,0.00,,,0.00,0,Wunderground v.1.15,2013-10-26 09:43:00,
2013-10-26 04:44:00,45.4,35.1,29.83,SW,232,3.0,6.0,67,0.00,,,0.00,0,Wunderground v.1.15,2013-10-26 09:44:00,
2013-10-26 04:45:00,45.4,35.1,29.83,SW,233,3.0,6.0,67,0.00,,,0.00,0,Wunderground v.1.15,2013-10-26 09:45:00,
2013-10-26 04:46:00,45.4,35.1,29.83,SW,232,2.0,6.0,67,0.00,,,0.00,0,Wunderground v.1.15,2013-10-26 09:46:00,
2013-10-26 04:49:00,45.2,35.3,29.83,SW,232,2.0,6.0,68,0.00,,,0.00,0,Wunderground v.1.15,2013-10-26 09:49:00,
2013-10-26 04:51:00,45.1,35.2,29.83,SW,233,1.0,1.0,68,0.00,,,0.00,0,Wunderground v.1.15,2013-10-26 09:51:00,
2013-10-26 04:53:00,45.0,35.1,29.83,SW,232,1.0,1.0,68,0.00,,,0.00,0,Wunderground v.1.15,2013-10-26 09:53:00,
2013-10-26 04:54:00,45.0,35.1,29.83,SW,232,1.0,1.0,68,0.00,,,0.00,0,Wunderground v.1.15,2013-10-26 09:54:00,
2013-10-26 04:55:00,44.9,35.0,29.83,SW,232,1.0,1.0,68,0.00,,,0.00,0,Wunderground v.1.15,2013-10-26 09:55:00,
2013-10-26 04:56:00,44.9,35.0,29.83,SW,233,0.0,1.0,68,0.00,,,0.00,0,Wunderground v.1.15,2013-10-26 09:56:00,
2013-10-26 04:57:00,44.8,34.9,29.83,SW,233,0.0,1.0,68,0.00,,,0.00,0,Wunderground v.1.15,2013-10-26 09:57:00,
2013-10-26 04:59:00,44.7,35.1,29.84,SW,232,1.0,2.0,69,0.00,,,0.00,0,Wunderground v.1.15,2013-10-26 09:59:00,
2013-10-26 05:01:00,44.6,35.1,29.84,SW,232,1.0,1.0,69,0.00,,,0.00,0,Wunderground v.1.15,2013-10-26 10:01:00,
2013-10-26 05:02:00,44.5,35.0,29.84,SW,232,1.0,1.0,69,0.00,,,0.00,0,Wunderground v.1.15,2013-10-26 10:02:00,
2013-10-26 05:04:00,44.5,35.0,29.84,SW,232,1.0,1.0,69,0.00,,,0.00,0,Wunderground v.1.15,2013-10-26 10:04:00,
2013-10-26 05:07:00,44.4,34.9,29.84,SW,232,0.0,1.0,69,0.00,,,0.00,0,Wunderground v.1.15,2013-10-26 10:07:00,
2013-10-26 05:08:00,44.3,35.1,29.84,SW,232,0.0,1.0,70,0.00,,,0.00,0,Wunderground v.1.15,2013-10-26 10:08:00,
2013-10-26 05:09:00,44.3,35.1,29.84,SW,232,0.0,1.0,70,0.00,,,0.00,0,Wunderground v.1.15,2013-10-26 10:09:00,
2013-10-26 05:10:00,44.2,35.0,29.84,SW,232,0.0,0.0,70,0.00,,,0.00,0,Wunderground v.1.15,2013-10-26 10:10:00,
2013-10-26 05:14:00,44.1,35.3,29.84,SW,232,0.0,3.0,71,0.00,,,0.00,0,Wunderground v.1.15,2013-10-26 10:14:00,
2013-10-26 05:15:00,44.1,35.3,29.84,SW,232,0.0,3.0,71,0.00,,,0.00,0,Wunderground v.1.15,2013-10-26 10:15:00,
2013-10-26 05:17:00,44.0,35.2,29.84,SW,232,0.0,3.0,71,0.00,,,0.00,0,Wunderground v.1.15,2013-10-26 10:17:00,
2013-10-26 05:19:00,43.9,35.1,29.84,SW,232,0.0,3.0,71,0.00,,,0.00,0,Wunderground v.1.15,2013-10-26 10:19:00,
2013-10-26 05:24:00,43.8,35.4,29.85,SW,232,0.0,0.0,72,0.00,,,0.00,0,Wunderground v.1.15,2013-10-26 10:24:00,
2013-10-26 05:25:00,43.7,35.3,29.85,SW,232,0.0,2.0,72,0.00,,,0.00,0,Wunderground v.1.15,2013-10-26 10:25:00,
2013-10-26 05:27:00,43.7,35.3,29.85,SW,232,0.0,2.0,72,0.00,,,0.00,0,Wunderground v.1.15,2013-10-26 10:27:00,
2013-10-26 05:28:00,43.7,35.3,29.85,SW,232,0.0,2.0,72,0.00,,,0.00,0,Wunderground v.1.15,2013-10-26 10:28:00,
2013-10-26 05:31:00,43.5,35.1,29.85,SW,232,0.0,0.0,72,0.00,,,0.00,0,Wunderground v.1.15,2013-10-26 10:31:00,
2013-10-26 05:32:00,43.5,35.1,29.85,SW,232,0.0,0.0,72,0.00,,,0.00,0,Wunderground v.1.15,2013-10-26 10:32:00,
2013-10-26 05:33:00,43.5,35.1,29.85,SW,232,0.0,0.0,72,0.00,,,0.00,0,Wunderground v.1.15,2013-10-26 10:33:00,
2013-10-26 05:34:00,43.4,35.0,29.85,SW,232,0.0,0.0,72,0.00,,,0.00,0,Wunderground v.1.15,2013-10-26 10:34:00,
2013-10-26 05:35:00,43.4,35.0,29.85,SW,232,0.0,0.0,72,0.00,,,0.00,0,Wunderground v.1.15,2013-10-26 10:35:00,
2013-10-26 05:37:00,43.3,34.9,29.85,SW,232,0.0,0.0,72,0.00,,,0.00,0,Wunderground v.1.15,2013-10-26 10:37:00,
2013-10-26 05:38:00,43.3,34.9,29.85,SW,232,0.0,0.0,72,0.00,,,0.00,0,Wunderground v.1.15,2013-10-26 10:38:00,
2013-10-26 05:39:00,43.2,35.1,29.85,SW,232,0.0,0.0,73,0.00,,,0.00,0,Wunderground v.1.15,2013-10-26 10:39:00,
2013-10-26 05:42:00,43.1,35.0,29.86,SW,232,0.0,0.0,73,0.00,,,0.00,0,Wunderground v.1.15,2013-10-26 10:42:00,
2013-10-26 05:44:00,43.1,35.0,29.86,SW,232,0.0,1.0,73,0.00,,,0.00,0,Wunderground v.1.15,2013-10-26 10:44:00,
2013-10-26 05:45:00,43.0,34.9,29.86,SW,232,0.0,1.0,73,0.00,,,0.00,0,Wunderground v.1.15,2013-10-26 10:45:00,
2013-10-26 05:46:00,43.0,34.9,29.86,SW,232,0.0,1.0,73,0.00,,,0.00,0,Wunderground v.1.15,2013-10-26 10:46:00,
2013-10-26 05:47:00,42.9,34.8,29.86,SW,232,0.0,1.0,73,0.00,,,0.00,0,Wunderground v.1.15,2013-10-26 10:47:00,
2013-10-26 05:49:00,42.8,35.1,29.86,SW,232,0.0,1.0,74,0.00,,,0.00,0,Wunderground v.1.15,2013-10-26 10:49:00,
2013-10-26 05:50:00,42.8,35.1,29.86,SW,232,0.0,0.0,74,0.00,,,0.00,0,Wunderground v.1.15,2013-10-26 10:50:00,
2013-10-26 05:52:00,42.7,35.0,29.86,SW,232,0.0,0.0,74,0.00,,,0.00,0,Wunderground v.1.15,2013-10-26 10:52:00,
2013-10-26 05:53:00,42.7,35.0,29.86,SW,232,0.0,0.0,74,0.00,,,0.00,0,Wunderground v.1.15,2013-10-26 10:53:00,
2013-10-26 05:55:00,42.6,34.9,29.86,SW,232,0.0,0.0,74,0.00,,,0.00,0,Wunderground v.1.15,2013-10-26 10:55:00,
2013-10-26 05:56:00,42.6,34.9,29.86,SW,232,0.0,0.0,74,0.00,,,0.00,0,Wunderground v.1.15,2013-10-26 10:56:00,
2013-10-26 05:57:00,42.5,34.8,29.86,SW,232,0.0,0.0,74,0.00,,,0.00,0,Wunderground v.1.15,2013-10-26 10:57:00,
2013-10-26 05:58:00,42.5,35.1,29.86,SW,232,0.0,0.0,75,0.00,,,0.00,0,Wunderground v.1.15,2013-10-26 10:58:00,
2013-10-26 06:02:00,42.3,34.9,29.86,SW,232,0.0,0.0,75,0.00,,,0.00,0,Wunderground v.1.15,2013-10-26 11:02:00,
2013-10-26 06:04:00,42.3,34.9,29.86,SW,232,0.0,0.0,75,0.00,,,0.00,0,Wunderground v.1.15,2013-10-26 11:04:00,
2013-10-26 06:07:00,42.1,35.1,29.86,SW,232,0.0,0.0,76,0.00,,,0.00,0,Wunderground v.1.15,2013-10-26 11:07:00,
2013-10-26 06:09:00,42.1,35.1,29.86,SW,232,0.0,0.0,76,0.00,,,0.00,0,Wunderground v.1.15,2013-10-26 11:09:00,
2013-10-26 06:10:00,42.0,35.0,29.86,SW,232,0.0,0.0,76,0.00,,,0.00,0,Wunderground v.1.15,2013-10-26 11:10:00,
2013-10-26 06:11:00,42.0,35.0,29.86,SW,232,0.0,0.0,76,0.00,,,0.00,0,Wunderground v.1.15,2013-10-26 11:11:00,
2013-10-26 06:12:00,42.0,35.0,29.86,SW,232,0.0,0.0,76,0.00,,,0.00,0,Wunderground v.1.15,2013-10-26 11:12:00,
2013-10-26 06:14:00,41.9,35.2,29.86,SW,232,0.0,0.0,77,0.00,,,0.00,0,Wunderground v.1.15,2013-10-26 11:14:00,
2013-10-26 06:15:00,41.9,35.2,29.86,SW,232,0.0,0.0,77,0.00,,,0.00,0,Wunderground v.1.15,2013-10-26 11:15:00,
2013-10-26 06:19:00,41.8,35.1,29.87,SW,232,0.0,0.0,77,0.00,,,0.00,0,Wunderground v.1.15,2013-10-26 11:19:00,
2013-10-26 06:20:00,41.7,35.0,29.87,SW,232,0.0,0.0,77,0.00,,,0.00,0,Wunderground v.1.15,2013-10-26 11:20:00,
2013-10-26 06:21:00,41.6,34.9,29.87,SW,232,0.0,0.0,77,0.00,,,0.00,0,Wunderground v.1.15,2013-10-26 11:21:00,
2013-10-26 06:22:00,41.6,34.9,29.87,SW,232,0.0,0.0,77,0.00,,,0.00,0,Wunderground v.1.15,2013-10-26 11:22:00,
2013-10-26 06:24:00,41.4,34.7,29.87,SW,232,0.0,0.0,77,0.00,,,0.00,0,Wunderground v.1.15,2013-10-26 11:24:00,
2013-10-26 06:27:00,41.1,34.4,29.87,SW,232,0.0,0.0,77,0.00,,,0.00,0,Wunderground v.1.15,2013-10-26 11:27:00,
2013-10-26 06:29:00,41.0,34.7,29.87,SW,232,0.0,1.0,78,0.00,,,0.00,0,Wunderground v.1.15,2013-10-26 11:29:00,
2013-10-26 06:30:00,40.9,34.6,29.87,SW,232,0.0,0.0,78,0.00,,,0.00,0,Wunderground v.1.15,2013-10-26 11:30:00,
2013-10-26 06:32:00,40.8,34.5,29.87,SW,232,0.0,1.0,78,0.00,,,0.00,0,Wunderground v.1.15,2013-10-26 11:32:00,
2013-10-26 06:34:00,40.6,34.3,29.87,SW,232,0.0,1.0,78,0.00,,,0.00,0,Wunderground v.1.15,2013-10-26 11:34:00,
2013-10-26 06:36:00,40.4,34.1,29.87,SW,232,0.0,1.0,78,0.00,,,0.00,0,Wunderground v.1.15,2013-10-26 11:36:00,
2013-10-26 06:38:00,40.2,34.2,29.87,SW,232,0.0,1.0,79,0.00,,,0.00,0,Wunderground v.1.15,2013-10-26 11:38:00,
2013-10-26 06:39:00,40.1,34.1,29.87,SW,232,0.0,1.0,79,0.00,,,0.00,0,Wunderground v.1.15,2013-10-26 11:39:00,
2013-10-26 06:41:00,40.0,34.0,29.87,SW,232,0.0,0.0,79,0.00,,,0.00,0,Wunderground v.1.15,2013-10-26 11:41:00,
2013-10-26 06:44:00,39.8,33.8,29.88,SW,232,0.0,0.0,79,0.00,,,0.00,0,Wunderground v.1.15,2013-10-26 11:44:00,
2013-10-26 06:46:00,39.7,33.7,29.88,SW,232,0.0,0.0,79,0.00,,,0.00,0,Wunderground v.1.15,2013-10-26 11:46:00,
2013-10-26 06:49:00,39.6,33.6,29.88,SW,232,0.0,0.0,79,0.00,,,0.00,0,Wunderground v.1.15,2013-10-26 11:49:00,
2013-10-26 06:52:00,39.4,33.4,29.88,SW,232,0.0,0.0,79,0.00,,,0.00,0,Wunderground v.1.15,2013-10-26 11:52:00,
2013-10-26 06:53:00,39.4,33.4,29.88,SW,232,0.0,0.0,79,0.00,,,0.00,0,Wunderground v.1.15,2013-10-26 11:53:00,
2013-10-26 06:54:00,39.3,33.3,29.88,SW,232,0.0,0.0,79,0.00,,,0.00,0,Wunderground v.1.15,2013-10-26 11:54:00,
2013-10-26 06:55:00,39.3,33.3,29.88,SW,232,0.0,0.0,79,0.00,,,0.00,0,Wunderground v.1.15,2013-10-26 11:55:00,
2013-10-26 06:57:00,39.2,33.2,29.88,SW,232,0.0,0.0,79,0.00,,,0.00,0,Wunderground v.1.15,2013-10-26 11:57:00,
2013-10-26 07:00:00,39.0,33.0,29.88,SW,232,0.0,0.0,79,0.00,,,0.00,0,Wunderground v.1.15,2013-10-26 12:00:00,
2013-10-26 07:02:00,38.9,32.9,29.88,SW,232,0.0,0.0,79,0.00,,,0.00,0,Wunderground v.1.15,2013-10-26 12:02:00,
2013-10-26 07:05:00,38.6,33.0,29.88,SW,232,0.0,0.0,80,0.00,,,0.00,0,Wunderground v.1.15,2013-10-26 12:05:00,
2013-10-26 07:06:00,38.6,33.0,29.89,SW,232,0.0,0.0,80,0.00,,,0.00,0,Wunderground v.1.15,2013-10-26 12:06:00,
2013-10-26 07:07:00,38.5,32.9,29.89,SW,232,0.0,0.0,80,0.00,,,0.00,0,Wunderground v.1.15,2013-10-26 12:07:00,
2013-10-26 07:09:00,38.4,32.8,29.89,SW,232,0.0,0.0,80,0.00,,,0.00,0,Wunderground v.1.15,2013-10-26 12:09:00,
2013-10-26 07:10:00,38.3,32.7,29.89,SW,232,0.0,0.0,80,0.00,,,0.00,0,Wunderground v.1.15,2013-10-26 12:10:00,
2013-10-26 07:11:00,38.3,32.7,29.89,SW,232,0.0,0.0,80,0.00,,,0.00,0,Wunderground v.1.15,2013-10-26 12:11:00,
2013-10-26 07:14:00,38.1,32.8,29.89,SW,232,0.0,0.0,81,0.00,,,0.00,0,Wunderground v.1.15,2013-10-26 12:14:00,
2013-10-26 07:16:00,38.0,32.7,29.89,SW,232,0.0,0.0,81,0.00,,,0.00,0,Wunderground v.1.15,2013-10-26 12:16:00,
2013-10-26 07:19:00,37.9,32.6,29.89,SW,232,0.0,0.0,81,0.00,,,0.00,0,Wunderground v.1.15,2013-10-26 12:19:00,
2013-10-26 07:20:00,37.8,32.5,29.89,SW,232,0.0,0.0,81,0.00,,,0.00,0,Wunderground v.1.15,2013-10-26 12:20:00,
2013-10-26 07:25:00,37.8,33.1,29.89,SW,232,0.0,1.0,83,0.00,,,0.00,0,Wunderground v.1.15,2013-10-26 12:25:00,
2013-10-26 07:26:00,37.8,33.1,29.90,SW,232,0.0,1.0,83,0.00,,,0.00,0,Wunderground v.1.15,2013-10-26 12:26:00,
2013-10-26 07:27:00,37.8,33.1,29.89,SW,232,0.0,1.0,83,0.00,,,0.00,0,Wunderground v.1.15,2013-10-26 12:27:00,
2013-10-26 07:29:00,37.8,33.1,29.90,SW,232,0.0,1.0,83,0.00,,,0.00,0,Wunderground v.1.15,2013-10-26 12:29:00,
2013-10-26 07:30:00,37.8,33.1,29.90,SW,232,0.0,0.0,83,0.00,,,0.00,0,Wunderground v.1.15,2013-10-26 12:30:00,
2013-10-26 07:34:00,37.9,33.5,29.90,SW,232,0.0,0.0,84,0.00,,,0.00,5,Wunderground v.1.15,2013-10-26 12:34:00,
2013-10-26 07:35:00,37.9,33.5,29.90,SW,232,0.0,1.0,84,0.00,,,0.00,5,Wunderground v.1.15,2013-10-26 12:35:00,
2013-10-26 07:36:00,37.9,33.5,29.90,SW,232,0.0,1.0,84,0.00,,,0.00,7,Wunderground v.1.15,2013-10-26 12:36:00,
2013-10-26 07:37:00,38.0,33.6,29.90,SW,232,0.0,3.0,84,0.00,,,0.00,7,Wunderground v.1.15,2013-10-26 12:37:00,
2013-10-26 07:40:00,38.1,34.0,29.90,SW,232,0.0,2.0,85,0.00,,,0.00,12,Wunderground v.1.15,2013-10-26 12:40:00,
2013-10-26 07:42:00,38.3,34.2,29.90,SW,232,1.0,3.0,85,0.00,,,0.00,11,Wunderground v.1.15,2013-10-26 12:42:00,
2013-10-26 07:44:00,38.5,34.7,29.90,SW,232,1.0,3.0,86,0.00,,,0.00,11,Wunderground v.1.15,2013-10-26 12:44:00,
2013-10-26 07:45:00,38.6,34.8,29.90,SW,232,1.0,4.0,86,0.00,,,0.00,11,Wunderground v.1.15,2013-10-26 12:45:00,
2013-10-26 07:46:00,38.7,34.9,29.90,SW,232,1.0,4.0,86,0.00,,,0.00,9,Wunderground v.1.15,2013-10-26 12:46:00,
2013-10-26 07:49:00,39.1,35.3,29.90,SW,232,2.0,4.0,86,0.00,,,0.00,11,Wunderground v.1.15,2013-10-26 12:49:00,
2013-10-26 07:50:00,39.3,35.5,29.90,SW,232,2.0,4.0,86,0.00,,,0.00,12,Wunderground v.1.15,2013-10-26 12:50:00,
2013-10-26 07:52:00,39.6,35.8,29.90,SW,232,2.0,4.0,86,0.00,,,0.00,12,Wunderground v.1.15,2013-10-26 12:52:00,
2013-10-26 07:54:00,39.8,36.0,29.90,SW,232,2.0,4.0,86,0.00,,,0.00,12,Wunderground v.1.15,2013-10-26 12:54:00,
2013-10-26 07:56:00,40.1,36.0,29.91,SW,232,2.0,4.0,85,0.00,,,0.00,16,Wunderground v.1.15,2013-10-26 12:56:00,
2013-10-26 07:57:00,40.2,36.3,29.91,West,272,2.0,4.0,86,0.00,,,0.00,23,Wunderground v.1.15,2013-10-26 12:57:00,
2013-10-26 07:59:00,40.3,36.4,29.91,West,272,2.0,4.0,86,0.00,,,0.00,25,Wunderground v.1.15,2013-10-26 12:59:00,
2013-10-26 08:02:00,40.6,36.4,29.91,West,272,1.0,2.0,85,0.00,,,0.00,32,Wunderground v.1.15,2013-10-26 13:02:00,
2013-10-26 08:05:00,40.9,36.4,29.91,West,272,2.0,4.0,84,0.00,,,0.00,28,Wunderground v.1.15,2013-10-26 13:05:00,
2013-10-26 08:09:00,41.6,36.8,29.91,WNW,284,3.0,6.0,83,0.00,,,0.00,63,Wunderground v.1.15,2013-10-26 13:09:00,
2013-10-26 08:11:00,42.2,36.8,29.91,WNW,288,5.0,10.0,81,0.00,,,0.00,53,Wunderground v.1.15,2013-10-26 13:11:00,
2013-10-26 08:12:00,42.4,36.7,29.91,WNW,295,5.0,10.0,80,0.00,,,0.00,56,Wunderground v.1.15,2013-10-26 13:12:00,
2013-10-26 08:15:00,43.1,36.4,29.91,West,281,6.0,10.0,77,0.00,,,0.00,54,Wunderground v.1.15,2013-10-26 13:15:00,
2013-10-26 08:17:00,43.3,36.2,29.91,NW,305,5.0,10.0,76,0.00,,,0.00,63,Wunderground v.1.15,2013-10-26 13:17:00,
2013-10-26 08:18:00,43.4,36.0,29.91,West,260,5.0,11.0,75,0.00,,,0.00,95,Wunderground v.1.15,2013-10-26 13:18:00,
2013-10-26 08:21:00,43.6,35.9,29.91,WNW,299,4.0,5.0,74,0.00,,,0.00,49,Wunderground v.1.15,2013-10-26 13:21:00,
2013-10-26 08:24:00,43.8,35.7,29.92,NW,309,3.0,5.0,73,0.00,,,0.00,49,Wunderground v.1.15,2013-10-26 13:24:00,
2013-10-26 08:28:00,44.0,35.6,29.92,NNW,329,3.0,6.0,72,0.00,,,0.00,83,Wunderground v.1.15,2013-10-26 13:28:00,
2013-10-26 08:29:00,44.0,35.2,29.92,WNW,290,3.0,6.0,71,0.00,,,0.00,84,Wunderground v.1.15,2013-10-26 13:29:00,
2013-10-26 08:30:00,44.1,35.3,29.92,WSW,252,3.0,3.0,71,0.00,,,0.00,77,Wunderground v.1.15,2013-10-26 13:30:00,
2013-10-26 08:31:00,44.1,34.9,29.92,West,273,3.0,4.0,70,0.00,,,0.00,76,Wunderground v.1.15,2013-10-26 13:31:00,
2013-10-26 08:34:00,44.2,35.0,29.92,NW,315,4.0,7.0,70,0.00,,,0.00,128,Wunderground v.1.15,2013-10-26 13:34:00,
2013-10-26 08:35:00,44.3,35.1,29.93,NW,309,4.0,8.0,70,0.00,,,0.00,93,Wunderground v.1.15,2013-10-26 13:35:00,
2013-10-26 08:37:00,44.4,34.9,29.93,West,263,5.0,8.0,69,0.00,,,0.00,70,Wunderground v.1.15,2013-10-26 13:37:00,
2013-10-26 08:38:00,44.4,34.5,29.93,WSW,248,5.0,8.0,68,0.00,,,0.00,67,Wunderground v.1.15,2013-10-26 13:38:00,
2013-10-26 08:39:00,44.5,34.6,29.93,West,277,5.0,8.0,68,0.00,,,0.00,62,Wunderground v.1.15,2013-10-26 13:39:00,
2013-10-26 08:40:00,44.5,34.6,29.93,WNW,298,5.0,5.0,68,0.00,,,0.00,63,Wunderground v.1.15,2013-10-26 13:40:00,
2013-10-26 08:43:00,44.5,34.2,29.93,NW,305,5.0,10.0,67,0.00,,,0.00,62,Wunderground v.1.15,2013-10-26 13:43:00,
2013-10-26 08:45:00,44.5,34.2,29.93,NNW,342,6.0,10.0,67,0.00,,,0.00,74,Wunderground v.1.15,2013-10-26 13:45:00,
2013-10-26 08:46:00,44.5,34.2,29.94,NNW,336,6.0,10.0,67,0.00,,,0.00,83,Wunderground v.1.15,2013-10-26 13:46:00,
2013-10-26 08:47:00,44.5,34.2,29.94,WNW,289,6.0,10.0,67,0.00,,,0.00,86,Wunderground v.1.15,2013-10-26 13:47:00,
2013-10-26 08:50:00,44.5,34.2,29.94,WNW,287,6.0,11.0,67,0.00,,,0.00,93,Wunderground v.1.15,2013-10-26 13:50:00,
2013-10-26 08:51:00,44.5,33.8,29.94,WNW,294,6.0,11.0,66,0.00,,,0.00,95,Wunderground v.1.15,2013-10-26 13:51:00,
2013-10-26 08:52:00,44.5,33.8,29.94,West,271,7.0,11.0,66,0.00,,,0.00,90,Wunderground v.1.15,2013-10-26 13:52:00,
2013-10-26 08:53:00,44.5,33.8,29.94,West,281,6.0,12.0,66,0.00,,,0.00,83,Wunderground v.1.15,2013-10-26 13:53:00,
2013-10-26 08:57:00,44.4,33.7,29.94,West,267,6.0,12.0,66,0.00,,,0.00,76,Wunderground v.1.15,2013-10-26 13:57:00,
2013-10-26 08:59:00,44.4,33.7,29.94,NW,306,7.0,12.0,66,0.00,,,0.00,74,Wunderground v.1.15,2013-10-26 13:59:00,
2013-10-26 09:00:00,44.4,33.7,29.94,West,261,7.0,11.0,66,0.00,,,0.00,79,Wunderground v.1.15,2013-10-26 14:00:00,
2013-10-26 09:02:00,44.4,33.7,29.94,NW,309,6.0,11.0,66,0.00,,,0.00,91,Wunderground v.1.15,2013-10-26 14:02:00,
2013-10-26 09:05:00,44.3,33.7,29.94,North,355,6.0,11.0,66,0.00,,,0.00,111,Wunderground v.1.15,2013-10-26 14:05:00,
2013-10-26 09:06:00,44.3,33.7,29.94,NW,307,6.0,11.0,66,0.00,,,0.00,114,Wunderground v.1.15,2013-10-26 14:06:00,
2013-10-26 09:07:00,44.3,33.7,29.94,West,275,6.0,11.0,66,0.00,,,0.00,116,Wunderground v.1.15,2013-10-26 14:07:00,
2013-10-26 09:08:00,44.3,33.7,29.95,West,263,6.0,11.0,66,0.00,,,0.00,146,Wunderground v.1.15,2013-10-26 14:08:00,
2013-10-26 09:10:00,44.4,33.7,29.95,West,266,7.0,8.0,66,0.00,,,0.00,151,Wunderground v.1.15,2013-10-26 14:10:00,
2013-10-26 09:12:00,44.3,33.3,29.95,North,350,7.0,8.0,65,0.00,,,0.00,120,Wunderground v.1.15,2013-10-26 14:12:00,
2013-10-26 09:13:00,44.4,33.4,29.95,WNW,296,6.0,11.0,65,0.00,,,0.00,125,Wunderground v.1.15,2013-10-26 14:13:00,
2013-10-26 09:14:00,44.4,33.4,29.95,WSW,240,6.0,12.0,65,0.00,,,0.00,125,Wunderground v.1.15,2013-10-26 14:14:00,
2013-10-26 09:17:00,44.4,33.7,29.95,NW,316,7.0,12.0,66,0.00,,,0.00,148,Wunderground v.1.15,2013-10-26 14:17:00,
2013-10-26 09:18:00,44.5,33.8,29.95,West,281,7.0,12.0,66,0.00,,,0.00,142,Wunderground v.1.15,2013-10-26 14:18:00,
2013-10-26 09:19:00,44.5,33.5,29.95,West,273,7.0,12.0,65,0.00,,,0.00,142,Wunderground v.1.15,2013-10-26 14:19:00,
2013-10-26 09:22:00,44.5,33.5,29.95,SW,227,6.0,11.0,65,0.00,,,0.00,127,Wunderground v.1.15,2013-10-26 14:22:00,
2013-10-26 09:24:00,44.5,33.5,29.95,NNW,345,7.0,11.0,65,0.00,,,0.00,120,Wunderground v.1.15,2013-10-26 14:24:00,
2013-10-26 09:27:00,44.5,33.5,29.95,West,262,7.0,11.0,65,0.00,,,0.00,125,Wunderground v.1.15,2013-10-26 14:27:00,
2013-10-26 09:29:00,44.4,33.4,29.96,NW,312,7.0,11.0,65,0.00,,,0.00,125,Wunderground v.1.15,2013-10-26 14:29:00,
2013-10-26 09:33:00,44.5,33.8,29.96,North,355,7.0,8.0,66,0.00,,,0.00,213,Wunderground v.1.15,2013-10-26 14:33:00,
2013-10-26 09:34:00,44.5,33.8,29.96,WNW,288,7.0,8.0,66,0.00,,,0.00,213,Wunderground v.1.15,2013-10-26 14:34:00,
2013-10-26 09:36:00,44.6,33.9,29.96,NNW,342,7.0,8.0,66,0.00,,,0.00,429,Wunderground v.1.15,2013-10-26 14:36:00,
2013-10-26 09:37:00,44.7,34.0,29.96,West,273,7.0,8.0,66,0.00,,,0.00,438,Wunderground v.1.15,2013-10-26 14:37:00,
2013-10-26 09:39:00,44.9,34.2,29.96,NNW,329,6.0,11.0,66,0.00,,,0.00,181,Wunderground v.1.15,2013-10-26 14:39:00,
2013-10-26 09:41:00,45.0,33.9,29.96,West,265,6.0,7.0,65,0.00,,,0.00,130,Wunderground v.1.15,2013-10-26 14:41:00,
2013-10-26 09:42:00,45.1,34.0,29.96,WNW,284,6.0,8.0,65,0.00,,,0.00,123,Wunderground v.1.15,2013-10-26 14:42:00,
2013-10-26 09:44:00,45.1,34.0,29.96,WSW,256,6.0,9.0,65,0.00,,,0.00,123,Wunderground v.1.15,2013-10-26 14:44:00,
2013-10-26 09:46:00,45.0,33.9,29.96,NNW,338,6.0,9.0,65,0.00,,,0.00,160,Wunderground v.1.15,2013-10-26 14:46:00,
2013-10-26 09:47:00,45.0,33.9,29.97,NW,311,6.0,9.0,65,0.00,,,0.00,165,Wunderground v.1.15,2013-10-26 14:47:00,
2013-10-26 09:48:00,45.0,33.9,29.97,NNW,329,6.0,9.0,65,0.00,,,0.00,183,Wunderground v.1.15,2013-10-26 14:48:00,
2013-10-26 09:49:00,44.9,33.8,29.97,NW,311,6.0,9.0,65,0.00,,,0.00,165,Wunderground v.1.15,2013-10-26 14:49:00,
2013-10-26 09:53:00,44.8,33.7,29.97,NW,305,7.0,13.0,65,0.00,,,0.00,148,Wunderground v.1.15,2013-10-26 14:53:00,
2013-10-26 09:55:00,44.8,34.1,29.97,WNW,295,6.0,13.0,66,0.00,,,0.00,156,Wunderground v.1.15,2013-10-26 14:55:00,
2013-10-26 09:57:00,44.7,34.0,29.97,WSW,254,7.0,13.0,66,0.00,,,0.00,162,Wunderground v.1.15,2013-10-26 14:57:00,
2013-10-26 09:59:00,44.7,34.0,29.98,NNW,345,7.0,13.0,66,0.00,,,0.00,148,Wunderground v.1.15,2013-10-26 14:59:00,
2013-10-26 10:00:00,44.7,34.0,29.97,West,277,7.0,7.0,66,0.00,,,0.00,125,Wunderground v.1.15,2013-10-26 15:00:00,
2013-10-26 10:01:00,44.7,34.0,29.98,NNW,331,6.0,9.0,66,0.00,,,0.00,134,Wunderground v.1.15,2013-10-26 15:01:00,
2013-10-26 10:02:00,44.7,34.0,29.98,NW,309,6.0,9.0,66,0.00,,,0.00,125,Wunderground v.1.15,2013-10-26 15:02:00,
2013-10-26 10:07:00,44.6,33.9,29.98,WSW,250,6.0,9.0,66,0.00,,,0.00,76,Wunderground v.1.15,2013-10-26 15:07:00,
2013-10-26 10:08:00,44.5,33.8,29.98,NNW,344,6.0,9.0,66,0.00,,,0.00,81,Wunderground v.1.15,2013-10-26 15:08:00,
2013-10-26 10:09:00,44.5,33.8,29.98,WNW,286,5.0,9.0,66,0.00,,,0.00,91,Wunderground v.1.15,2013-10-26 15:09:00,
2013-10-26 10:10:00,44.5,33.8,29.98,West,272,6.0,7.0,66,0.00,,,0.00,109,Wunderground v.1.15,2013-10-26 15:10:00,
2013-10-26 10:12:00,44.4,33.7,29.98,NNW,327,6.0,7.0,66,0.00,,,0.00,148,Wunderground v.1.15,2013-10-26 15:12:00,
2013-10-26 10:13:00,44.4,34.1,29.98,NW,323,6.0,7.0,67,0.00,,,0.00,165,Wunderground v.1.15,2013-10-26 15:13:00,
2013-10-26 10:15:00,44.4,34.1,29.98,WNW,290,6.0,7.0,67,0.00,,,0.00,167,Wunderground v.1.15,2013-10-26 15:15:00,
2013-10-26 10:17:00,44.4,34.1,29.98,NW,313,5.0,7.0,67,0.00,,,0.00,183,Wunderground v.1.15,2013-10-26 15:17:00,
2013-10-26 10:18:00,44.4,34.1,29.98,NW,313,5.0,7.0,67,0.00,,,0.00,244,Wunderground v.1.15,2013-10-26 15:18:00,
2013-10-26 10:20:00,44.6,34.3,29.98,NW,310,4.0,4.0,67,0.00,,,0.00,244,Wunderground v.1.15,2013-10-26 15:20:00,
2013-10-26 10:24:00,44.9,34.2,29.98,NW,312,3.0,6.0,66,0.00,,,0.00,197,Wunderground v.1.15,2013-10-26 15:24:00,
2013-10-26 10:25:00,45.0,34.7,29.98,NW,319,3.0,6.0,67,0.00,,,0.00,197,Wunderground v.1.15,2013-10-26 15:25:00,
2013-10-26 10:26:00,45.1,34.8,29.98,NW,311,3.0,6.0,67,0.00,,,0.00,197,Wunderground v.1.15,2013-10-26 15:26:00,
2013-10-26 10:30:00,45.6,35.3,29.98,West,279,3.0,3.0,67,0.00,,,0.00,236,Wunderground v.1.15,2013-10-26 15:30:00,
2013-10-26 10:31:00,45.8,35.1,29.98,West,267,3.0,3.0,66,0.00,,,0.00,202,Wunderground v.1.15,2013-10-26 15:31:00,
2013-10-26 10:32:00,45.9,35.2,29.98,WSW,241,3.0,4.0,66,0.00,,,0.00,207,Wunderground v.1.15,2013-10-26 15:32:00,
2013-10-26 10:37:00,46.3,34.8,29.99,West,275,3.0,7.0,64,0.00,,,0.00,181,Wunderground v.1.15,2013-10-26 15:37:00,
2013-10-26 10:38:00,46.2,34.7,29.99,NNW,329,3.0,7.0,64,0.00,,,0.00,202,Wunderground v.1.15,2013-10-26 15:38:00,
2013-10-26 10:39:00,46.2,34.7,29.99,NW,317,4.0,7.0,64,0.00,,,0.00,197,Wunderground v.1.15,2013-10-26 15:39:00,
2013-10-26 10:40:00,46.0,34.5,29.99,NNW,337,4.0,4.0,64,0.00,,,0.00,185,Wunderground v.1.15,2013-10-26 15:40:00,
2013-10-26 10:41:00,45.9,34.4,29.99,NW,304,4.0,5.0,64,0.00,,,0.00,197,Wunderground v.1.15,2013-10-26 15:41:00,
2013-10-26 10:44:00,45.8,34.3,29.99,NNW,331,5.0,8.0,64,0.00,,,0.00,663,Wunderground v.1.15,2013-10-26 15:44:00,
2013-10-26 10:45:00,45.8,34.7,29.99,WNW,299,5.0,8.0,65,0.00,,,0.00,675,Wunderground v.1.15,2013-10-26 15:45:00,
2013-10-26 10:46:00,45.8,34.7,29.99,WSW,240,6.0,8.0,65,0.00,,,0.00,675,Wunderground v.1.15,2013-10-26 15:46:00,
2013-10-26 10:50:00,46.0,34.5,30.00,WNW,297,5.0,15.0,64,0.00,,,0.00,243,Wunderground v.1.15,2013-10-26 15:50:00,
2013-10-26 10:51:00,46.0,34.5,30.00,West,280,6.0,15.0,64,0.00,,,0.00,246,Wunderground v.1.15,2013-10-26 15:51:00,
2013-10-26 10:52:00,46.0,34.1,30.00,NW,318,6.0,15.0,63,0.00,,,0.00,204,Wunderground v.1.15,2013-10-26 15:52:00,
2013-10-26 10:53:00,45.9,34.4,30.00,NW,311,5.0,15.0,64,0.00,,,0.00,179,Wunderground v.1.15,2013-10-26 15:53:00,
2013-10-26 10:54:00,45.9,34.4,30.00,NW,317,5.0,15.0,64,0.00,,,0.00,179,Wunderground v.1.15,2013-10-26 15:54:00,
2013-10-26 10:59:00,45.8,34.3,30.00,North,5,5.0,15.0,64,0.00,,,0.00,181,Wunderground v.1.15,2013-10-26 15:59:00,
2013-10-26 11:00:00,45.8,34.3,30.00,NNW,332,4.0,4.0,64,0.00,,,0.00,188,Wunderground v.1.15,2013-10-26 16:00:00,
2013-10-26 11:02:00,45.8,34.3,30.00,West,266,3.0,10.0,64,0.00,,,0.00,165,Wunderground v.1.15,2013-10-26 16:02:00,
2013-10-26 11:04:00,45.7,34.2,30.01,NNW,345,4.0,10.0,64,0.00,,,0.00,176,Wunderground v.1.15,2013-10-26 16:04:00,
2013-10-26 11:05:00,45.6,34.1,30.01,NW,316,4.0,10.0,64,0.00,,,0.00,216,Wunderground v.1.15,2013-10-26 16:05:00,
2013-10-26 11:09:00,45.4,34.3,30.01,WNW,298,5.0,10.0,65,0.00,,,0.00,216,Wunderground v.1.15,2013-10-26 16:09:00,
2013-10-26 11:10:00,45.4,34.3,30.01,West,274,5.0,7.0,65,0.00,,,0.00,214,Wunderground v.1.15,2013-10-26 16:10:00,
2013-10-26 11:12:00,45.2,34.1,30.01,West,277,6.0,9.0,65,0.00,,,0.00,211,Wunderground v.1.15,2013-10-26 16:12:00,
2013-10-26 11:13:00,45.2,34.1,30.01,WNW,300,6.0,9.0,65,0.00,,,0.00,225,Wunderground v.1.15,2013-10-26 16:13:00,
2013-10-26 11:14:00,45.2,34.1,30.01,NW,311,6.0,9.0,65,0.00,,,0.00,237,Wunderground v.1.15,2013-10-26 16:14:00,
2013-10-26 11:15:00,45.2,34.1,30.01,NW,304,5.0,9.0,65,0.00,,,0.00,250,Wunderground v.1.15,2013-10-26 16:15:00,
2013-10-26 11:17:00,45.3,34.2,30.01,West,279,4.0,9.0,65,0.00,,,0.00,218,Wunderground v.1.15,2013-10-26 16:17:00,
2013-10-26 11:19:00,45.3,34.2,30.01,WSW,257,5.0,11.0,65,0.00,,,0.00,227,Wunderground v.1.15,2013-10-26 16:19:00,
2013-10-26 11:20:00,45.2,34.1,30.02,NW,308,4.0,4.0,65,0.00,,,0.00,237,Wunderground v.1.15,2013-10-26 16:20:00,
2013-10-26 11:21:00,45.2,34.1,30.01,WSW,244,4.0,8.0,65,0.00,,,0.00,248,Wunderground v.1.15,2013-10-26 16:21:00,
2013-10-26 11:22:00,45.2,34.1,30.02,West,265,4.0,8.0,65,0.00,,,0.00,255,Wunderground v.1.15,2013-10-26 16:22:00,
2013-10-26 11:25:00,45.3,34.2,30.02,NW,325,4.0,8.0,65,0.00,,,0.00,264,Wunderground v.1.15,2013-10-26 16:25:00,
2013-10-26 11:27:00,45.4,34.3,30.02,NNW,336,4.0,8.0,65,0.00,,,0.00,195,Wunderground v.1.15,2013-10-26 16:27:00,
2013-10-26 11:29:00,45.5,34.4,30.02,NW,305,4.0,8.0,65,0.00,,,0.00,207,Wunderground v.1.15,2013-10-26 16:29:00,
2013-10-26 11:31:00,45.5,34.0,30.02,WNW,296,4.0,4.0,64,0.00,,,0.00,185,Wunderground v.1.15,2013-10-26 16:31:00,
2013-10-26 11:32:00,45.5,34.0,30.02,WNW,299,3.0,4.0,64,0.00,,,0.00,181,Wunderground v.1.15,2013-10-26 16:32:00,
2013-10-26 11:34:00,45.4,33.5,30.02,NW,311,4.0,8.0,63,0.00,,,0.00,216,Wunderground v.1.15,2013-10-26 16:34:00,
2013-10-26 11:36:00,45.4,33.1,30.02,NW,305,5.0,11.0,62,0.00,,,0.00,675,Wunderground v.1.15,2013-10-26 16:36:00,
2013-10-26 11:38:00,45.4,33.1,30.02,SW,224,6.0,11.0,62,0.00,,,0.00,675,Wunderground v.1.15,2013-10-26 16:38:00,
2013-10-26 11:39:00,45.5,33.2,30.02,NNW,344,6.0,11.0,62,0.00,,,0.00,675,Wunderground v.1.15,2013-10-26 16:39:00,
2013-10-26 11:40:00,45.5,33.2,30.02,NNW,346,7.0,7.0,62,0.00,,,0.00,701,Wunderground v.1.15,2013-10-26 16:40:00,
2013-10-26 11:43:00,45.7,32.6,30.02,NW,323,7.0,13.0,60,0.00,,,0.00,675,Wunderground v.1.15,2013-10-26 16:43:00,
2013-10-26 11:46:00,45.8,32.7,30.02,NNW,331,7.0,13.0,60,0.00,,,0.00,255,Wunderground v.1.15,2013-10-26 16:46:00,
2013-10-26 11:47:00,45.7,32.6,30.03,North,351,7.0,13.0,60,0.00,,,0.00,171,Wunderground v.1.15,2013-10-26 16:47:00,
2013-10-26 11:49:00,45.6,32.5,30.03,NNW,348,7.0,13.0,60,0.00,,,0.00,156,Wunderground v.1.15,2013-10-26 16:49:00,
2013-10-26 11:51:00,45.4,31.9,30.03,NW,305,7.0,7.0,59,0.00,,,0.00,156,Wunderground v.1.15,2013-10-26 16:51:00,
2013-10-26 11:52:00,45.3,31.8,30.03,NNW,347,7.0,7.0,59,0.00,,,0.00,645,Wunderground v.1.15,2013-10-26 16:52:00,
2013-10-26 11:54:00,45.4,32.3,30.03,West,265,7.0,9.0,60,0.00,,,0.00,617,Wunderground v.1.15,2013-10-26 16:54:00,
2013-10-26 11:55:00,45.5,32.0,30.02,NNW,346,7.0,12.0,59,0.00,,,0.00,617,Wunderground v.1.15,2013-10-26 16:55:00,
2013-10-26 11:57:00,45.6,32.1,30.03,NNW,348,7.0,17.0,59,0.00,,,0.00,626,Wunderground v.1.15,2013-10-26 16:57:00,
2013-10-26 11:58:00,45.7,32.2,30.03,NNW,338,7.0,17.0,59,0.00,,,0.00,629,Wunderground v.1.15,2013-10-26 16:58:00,
2013-10-26 12:02:00,46.0,32.0,30.03,NNW,347,8.0,9.0,58,0.00,,,0.00,642,Wunderground v.1.15,2013-10-26 17:02:00,
2013-10-26 12:04:00,46.2,32.2,30.02,NNW,342,8.0,9.0,58,0.00,,,0.00,642,Wunderground v.1.15,2013-10-26 17:04:00,
2013-10-26 12:06:00,46.4,32.4,30.03,NNW,333,8.0,9.0,58,0.00,,,0.00,714,Wunderground v.1.15,2013-10-26 17:06:00,
2013-10-26 12:09:00,46.7,32.7,30.03,SW,234,7.0,9.0,58,0.00,,,0.00,714,Wunderground v.1.15,2013-10-26 17:09:00,
2013-10-26 12:12:00,47.0,32.5,30.03,NW,313,6.0,10.0,57,0.00,,,0.00,714,Wunderground v.1.15,2013-10-26 17:12:00,
2013-10-26 12:13:00,47.0,32.5,30.03,North,360,6.0,10.0,57,0.00,,,0.00,747,Wunderground v.1.15,2013-10-26 17:13:00,
2013-10-26 12:14:00,47.1,32.2,30.03,WNW,300,6.0,10.0,56,0.00,,,0.00,747,Wunderground v.1.15,2013-10-26 17:14:00,
2013-10-26 12:15:00,47.1,32.2,30.03,NW,315,6.0,10.0,56,0.00,,,0.00,190,Wunderground v.1.15,2013-10-26 17:15:00,
2013-10-26 12:17:00,47.1,31.3,30.03,NW,321,6.0,12.0,54,0.00,,,0.00,190,Wunderground v.1.15,2013-10-26 17:17:00,
2013-10-26 12:19:00,47.0,30.7,30.03,NNW,329,7.0,12.0,53,0.00,,,0.00,190,Wunderground v.1.15,2013-10-26 17:19:00,
2013-10-26 12:20:00,46.9,31.1,30.03,NW,310,7.0,7.0,54,0.00,,,0.00,701,Wunderground v.1.15,2013-10-26 17:20:00,
2013-10-26 12:22:00,46.9,31.1,30.04,West,279,7.0,8.0,54,0.00,,,0.00,167,Wunderground v.1.15,2013-10-26 17:22:00,
2013-10-26 12:25:00,46.9,32.0,30.04,NW,304,7.0,8.0,56,0.00,,,0.00,162,Wunderground v.1.15,2013-10-26 17:25:00,
2013-10-26 12:27:00,46.9,32.4,30.04,NW,323,7.0,8.0,57,0.00,,,0.00,227,Wunderground v.1.15,2013-10-26 17:27:00,
2013-10-26 12:28:00,46.8,32.4,30.04,West,272,7.0,8.0,57,0.00,,,0.00,146,Wunderground v.1.15,2013-10-26 17:28:00,
2013-10-26 12:29:00,46.8,32.8,30.04,WNW,298,6.0,8.0,58,0.00,,,0.00,675,Wunderground v.1.15,2013-10-26 17:29:00,
2013-10-26 12:31:00,46.9,32.9,30.04,NW,322,6.0,6.0,58,0.00,,,0.00,675,Wunderground v.1.15,2013-10-26 17:31:00,
2013-10-26 12:32:00,47.0,33.0,30.04,West,263,5.0,6.0,58,0.00,,,0.00,643,Wunderground v.1.15,2013-10-26 17:32:00,
2013-10-26 12:33:00,47.3,33.7,30.04,NW,305,5.0,9.0,59,0.00,,,0.00,661,Wunderground v.1.15,2013-10-26 17:33:00,
2013-10-26 12:35:00,47.6,33.1,30.03,West,261,5.0,9.0,57,0.00,,,0.00,661,Wunderground v.1.15,2013-10-26 17:35:00,
2013-10-26 12:37:00,47.6,32.2,30.04,NW,318,5.0,10.0,55,0.00,,,0.00,135,Wunderground v.1.15,2013-10-26 17:37:00,
2013-10-26 12:39:00,47.6,31.8,30.03,NNW,338,5.0,10.0,54,0.00,,,0.00,316,Wunderground v.1.15,2013-10-26 17:39:00,
2013-10-26 12:40:00,47.5,31.7,30.04,WSW,245,5.0,5.0,54,0.00,,,0.00,316,Wunderground v.1.15,2013-10-26 17:40:00,
2013-10-26 12:41:00,47.4,31.6,30.03,WSW,245,5.0,8.0,54,0.00,,,0.00,316,Wunderground v.1.15,2013-10-26 17:41:00,
2013-10-26 12:43:00,47.3,31.9,30.04,NNW,333,6.0,9.0,55,0.00,,,0.00,207,Wunderground v.1.15,2013-10-26 17:43:00,
2013-10-26 12:44:00,47.2,31.8,30.03,WNW,286,7.0,9.0,55,0.00,,,0.00,207,Wunderground v.1.15,2013-10-26 17:44:00,
2013-10-26 12:45:00,47.1,32.2,30.04,WNW,301,7.0,9.0,56,0.00,,,0.00,207,Wunderground v.1.15,2013-10-26 17:45:00,
2013-10-26 12:47:00,47.0,32.1,30.04,WNW,288,7.0,9.0,56,0.00,,,0.00,661,Wunderground v.1.15,2013-10-26 17:47:00,
2013-10-26 12:50:00,47.3,32.4,30.04,West,267,7.0,7.0,56,0.00,,,0.00,629,Wunderground v.1.15,2013-10-26 17:50:00,
2013-10-26 12:52:00,47.3,32.4,30.04,SW,231,7.0,17.0,56,0.00,,,0.00,636,Wunderground v.1.15,2013-10-26 17:52:00,
2013-10-26 12:54:00,47.4,32.0,30.04,WSW,257,7.0,17.0,55,0.00,,,0.00,647,Wunderground v.1.15,2013-10-26 17:54:00,
2013-10-26 12:55:00,47.6,32.2,30.04,NW,305,7.0,17.0,55,0.00,,,0.00,671,Wunderground v.1.15,2013-10-26 17:55:00,
2013-10-26 12:56:00,47.7,31.4,30.04,West,269,7.0,17.0,53,0.00,,,0.00,626,Wunderground v.1.15,2013-10-26 17:56:00,
2013-10-26 12:57:00,47.7,30.9,30.04,NW,322,8.0,17.0,52,0.00,,,0.00,626,Wunderground v.1.15,2013-10-26 17:57:00,
2013-10-26 12:59:00,47.7,30.9,30.04,WNW,300,9.0,17.0,52,0.00,,,0.00,643,Wunderground v.1.15,2013-10-26 17:59:00,
2013-10-26 13:00:00,47.7,30.4,30.04,WSW,241,9.0,13.0,51,0.00,,,0.00,650,Wunderground v.1.15,2013-10-26 18:00:00,
2013-10-26 13:01:00,47.7,30.4,30.04,NW,322,10.0,13.0,51,0.00,,,0.00,183,Wunderground v.1.15,2013-10-26 18:01:00,
2013-10-26 13:03:00,47.6,29.9,30.04,West,280,9.0,13.0,50,0.00,,,0.00,174,Wunderground v.1.15,2013-10-26 18:03:00,
2013-10-26 13:04:00,47.6,29.9,30.04,North,360,10.0,13.0,50,0.00,,,0.00,206,Wunderground v.1.15,2013-10-26 18:04:00,
2013-10-26 13:05:00,47.5,29.8,30.04,NNW,329,10.0,13.0,50,0.00,,,0.00,243,Wunderground v.1.15,2013-10-26 18:05:00,
2013-10-26 13:07:00,47.4,29.7,30.04,NW,316,9.0,13.0,50,0.00,,,0.00,278,Wunderground v.1.15,2013-10-26 18:07:00,
2013-10-26 13:10:00,47.3,30.1,30.04,WNW,286,8.0,8.0,51,0.00,,,0.00,169,Wunderground v.1.15,2013-10-26 18:10:00,
2013-10-26 13:11:00,47.3,30.5,30.04,West,281,7.0,8.0,52,0.00,,,0.00,171,Wunderground v.1.15,2013-10-26 18:11:00,
2013-10-26 13:12:00,47.3,30.5,30.04,NNW,336,7.0,8.0,52,0.00,,,0.00,172,Wunderground v.1.15,2013-10-26 18:12:00,
2013-10-26 13:15:00,47.4,30.6,30.04,WNW,294,5.0,11.0,52,0.00,,,0.00,142,Wunderground v.1.15,2013-10-26 18:15:00,
2013-10-26 13:16:00,47.4,30.6,30.04,WNW,287,5.0,11.0,52,0.00,,,0.00,148,Wunderground v.1.15,2013-10-26 18:16:00,
2013-10-26 13:17:00,47.3,30.5,30.04,WNW,288,6.0,11.0,52,0.00,,,0.00,151,Wunderground v.1.15,2013-10-26 18:17:00,
2013-10-26 13:20:00,47.1,30.4,30.04,West,260,5.0,5.0,52,0.00,,,0.00,141,Wunderground v.1.15,2013-10-26 18:20:00,
2013-10-26 13:21:00,47.1,30.4,30.04,WNW,284,5.0,6.0,52,0.00,,,0.00,146,Wunderground v.1.15,2013-10-26 18:21:00,
2013-10-26 13:22:00,47.1,30.4,30.04,WNW,297,6.0,6.0,52,0.00,,,0.00,158,Wunderground v.1.15,2013-10-26 18:22:00,
2013-10-26 13:25:00,47.0,30.7,30.04,NW,310,5.0,6.0,53,0.00,,,0.00,144,Wunderground v.1.15,2013-10-26 18:25:00,
2013-10-26 13:27:00,47.0,30.7,30.04,NW,308,5.0,8.0,53,0.00,,,0.00,127,Wunderground v.1.15,2013-10-26 18:27:00,
2013-10-26 13:28:00,47.0,31.2,30.04,NW,307,4.0,8.0,54,0.00,,,0.00,118,Wunderground v.1.15,2013-10-26 18:28:00,
2013-10-26 13:32:00,46.9,31.1,30.04,WNW,284,4.0,8.0,54,0.00,,,0.00,91,Wunderground v.1.15,2013-10-26 18:32:00,
2013-10-26 13:34:00,46.9,31.1,30.04,WNW,286,4.0,10.0,54,0.00,,,0.00,90,Wunderground v.1.15,2013-10-26 18:34:00,
2013-10-26 13:36:00,46.8,31.5,30.04,West,269,4.0,10.0,55,0.00,,,0.00,97,Wunderground v.1.15,2013-10-26 18:36:00,
2013-10-26 13:39:00,46.8,31.5,30.04,NW,312,4.0,10.0,55,0.00,,,0.00,116,Wunderground v.1.15,2013-10-26 18:39:00,
2013-10-26 13:40:00,46.7,31.4,30.04,WSW,252,4.0,4.0,55,0.00,,,0.00,195,Wunderground v.1.15,2013-10-26 18:40:00,
2013-10-26 13:41:00,46.7,31.4,30.04,North,355,3.0,4.0,55,0.00,,,0.00,195,Wunderground v.1.15,2013-10-26 18:41:00,
2013-10-26 13:42:00,46.8,31.5,30.04,WNW,288,3.0,5.0,55,0.00,,,0.00,195,Wunderground v.1.15,2013-10-26 18:42:00,
2013-10-26 13:44:00,46.8,31.9,30.04,WNW,298,3.0,5.0,56,0.00,,,0.00,149,Wunderground v.1.15,2013-10-26 18:44:00,
2013-10-26 13:45:00,46.9,31.6,30.04,NW,323,3.0,5.0,55,0.00,,,0.00,135,Wunderground v.1.15,2013-10-26 18:45:00,
2013-10-26 13:47:00,46.9,31.6,30.05,WNW,302,4.0,12.0,55,0.00,,,0.00,116,Wunderground v.1.15,2013-10-26 18:47:00,
2013-10-26 13:48:00,46.9,31.6,30.04,WNW,284,4.0,12.0,55,0.00,,,0.00,120,Wunderground v.1.15,2013-10-26 18:48:00,
2013-10-26 13:50:00,46.8,31.0,30.05,NW,317,5.0,7.0,54,0.00,,,0.00,134,Wunderground v.1.15,2013-10-26 18:50:00,
2013-10-26 13:52:00,46.7,30.9,30.05,NW,308,6.0,8.0,54,0.00,,,0.00,139,Wunderground v.1.15,2013-10-26 18:52:00,
2013-10-26 13:54:00,46.7,30.9,30.05,WNW,292,6.0,8.0,54,0.00,,,0.00,151,Wunderground v.1.15,2013-10-26 18:54:00,
2013-10-26 13:58:00,46.5,31.2,30.05,WNW,298,7.0,15.0,55,0.00,,,0.00,176,Wunderground v.1.15,2013-10-26 18:58:00,
2013-10-26 13:59:00,46.5,31.2,30.05,NW,317,7.0,15.0,55,0.00,,,0.00,172,Wunderground v.1.15,2013-10-26 18:59:00,
2013-10-26 14:00:00,46.5,31.2,30.05,NNW,327,7.0,7.0,55,0.00,,,0.00,172,Wunderground v.1.15,2013-10-26 19:00:00,
2013-10-26 14:01:00,46.5,31.2,30.05,North,355,7.0,7.0,55,0.00,,,0.00,169,Wunderground v.1.15,2013-10-26 19:01:00,
2013-10-26 14:02:00,46.5,31.2,30.05,WNW,300,7.0,7.0,55,0.00,,,0.00,162,Wunderground v.1.15,2013-10-26 19:02:00,
2013-10-26 14:03:00,46.4,31.1,30.05,West,280,7.0,7.0,55,0.00,,,0.00,155,Wunderground v.1.15,2013-10-26 19:03:00,
2013-10-26 14:05:00,46.4,31.1,30.05,WSW,252,7.0,7.0,55,0.00,,,0.00,144,Wunderground v.1.15,2013-10-26 19:05:00,
2013-10-26 14:06:00,46.4,31.1,30.05,WNW,284,6.0,7.0,55,0.00,,,0.00,144,Wunderground v.1.15,2013-10-26 19:06:00,
2013-10-26 14:07:00,46.4,31.1,30.05,WNW,295,6.0,7.0,55,0.00,,,0.00,162,Wunderground v.1.15,2013-10-26 19:07:00,
2013-10-26 14:09:00,46.4,31.1,30.05,WNW,300,6.0,7.0,55,0.00,,,0.00,178,Wunderground v.1.15,2013-10-26 19:09:00,
2013-10-26 14:11:00,46.4,31.1,30.05,West,276,7.0,8.0,55,0.00,,,0.00,206,Wunderground v.1.15,2013-10-26 19:11:00,
2013-10-26 14:12:00,46.4,31.1,30.05,WNW,288,6.0,8.0,55,0.00,,,0.00,179,Wunderground v.1.15,2013-10-26 19:12:00,
2013-10-26 14:14:00,46.4,31.1,30.05,WNW,299,6.0,8.0,55,0.00,,,0.00,153,Wunderground v.1.15,2013-10-26 19:14:00,
2013-10-26 14:16:00,46.5,31.2,30.05,North,350,6.0,9.0,55,0.00,,,0.00,148,Wunderground v.1.15,2013-10-26 19:16:00,
2013-10-26 14:19:00,46.4,30.6,30.05,WNW,300,7.0,10.0,54,0.00,,,0.00,149,Wunderground v.1.15,2013-10-26 19:19:00,
2013-10-26 14:20:00,46.4,31.1,30.05,West,269,6.0,12.0,55,0.00,,,0.00,146,Wunderground v.1.15,2013-10-26 19:20:00,
2013-10-26 14:22:00,46.4,31.1,30.05,WNW,294,7.0,12.0,55,0.00,,,0.00,132,Wunderground v.1.15,2013-10-26 19:22:00,
2013-10-26 14:26:00,46.4,31.1,30.06,North,350,6.0,12.0,55,0.00,,,0.00,540,Wunderground v.1.15,2013-10-26 19:26:00,
2013-10-26 14:28:00,46.6,31.3,30.06,West,271,6.0,12.0,55,0.00,,,0.00,563,Wunderground v.1.15,2013-10-26 19:28:00,
2013-10-26 14:29:00,46.7,31.4,30.06,WSW,257,6.0,12.0,55,0.00,,,0.00,563,Wunderground v.1.15,2013-10-26 19:29:00,
2013-10-26 14:30:00,46.9,31.6,30.06,North,350,6.0,6.0,55,0.00,,,0.00,605,Wunderground v.1.15,2013-10-26 19:30:00,
2013-10-26 14:34:00,47.5,31.7,30.05,West,273,5.0,9.0,54,0.00,,,0.00,631,Wunderground v.1.15,2013-10-26 19:34:00,
2013-10-26 14:35:00,47.8,31.5,30.05,NW,324,5.0,9.0,53,0.00,,,0.00,631,Wunderground v.1.15,2013-10-26 19:35:00,
2013-10-26 14:38:00,48.1,31.8,30.05,NNW,348,6.0,9.0,53,0.00,,,0.00,264,Wunderground v.1.15,2013-10-26 19:38:00,
2013-10-26 14:39:00,48.3,31.5,30.05,WNW,300,5.0,9.0,52,0.00,,,0.00,264,Wunderground v.1.15,2013-10-26 19:39:00,
2013-10-26 14:42:00,48.6,31.3,30.06,NW,320,6.0,15.0,51,0.00,,,0.00,156,Wunderground v.1.15,2013-10-26 19:42:00,
2013-10-26 14:43:00,48.7,31.4,30.06,West,278,5.0,15.0,51,0.00,,,0.00,148,Wunderground v.1.15,2013-10-26 19:43:00,
2013-10-26 14:45:00,48.6,30.8,30.06,NW,313,6.0,15.0,50,0.00,,,0.00,151,Wunderground v.1.15,2013-10-26 19:45:00,
2013-10-26 14:47:00,48.5,30.7,30.06,NNW,332,5.0,15.0,50,0.00,,,0.00,134,Wunderground v.1.15,2013-10-26 19:47:00,
2013-10-26 14:49:00,48.5,31.2,30.06,NNW,332,5.0,15.0,51,0.00,,,0.00,125,Wunderground v.1.15,2013-10-26 19:49:00,
2013-10-26 14:50:00,48.4,31.1,30.06,WNW,302,4.0,9.0,51,0.00,,,0.00,118,Wunderground v.1.15,2013-10-26 19:50:00,
2013-10-26 14:54:00,48.1,30.8,30.06,SW,217,4.0,9.0,51,0.00,,,0.00,121,Wunderground v.1.15,2013-10-26 19:54:00,
2013-10-26 14:55:00,47.9,30.6,30.06,SSW,205,4.0,9.0,51,0.00,,,0.00,123,Wunderground v.1.15,2013-10-26 19:55:00,
2013-10-26 14:56:00,47.9,31.1,30.06,NW,311,4.0,9.0,52,0.00,,,0.00,127,Wunderground v.1.15,2013-10-26 19:56:00,
2013-10-26 14:59:00,47.7,31.4,30.06,WNW,286,4.0,9.0,53,0.00,,,0.00,149,Wunderground v.1.15,2013-10-26 19:59:00,
2013-10-26 15:01:00,47.7,31.4,30.06,West,277,3.0,3.0,53,0.00,,,0.00,149,Wunderground v.1.15,2013-10-26 20:01:00,
2013-10-26 15:03:00,47.6,31.3,30.07,West,277,3.0,3.0,53,0.00,,,0.00,232,Wunderground v.1.15,2013-10-26 20:03:00,
2013-10-26 15:04:00,47.6,31.3,30.07,WNW,302,3.0,4.0,53,0.00,,,0.00,127,Wunderground v.1.15,2013-10-26 20:04:00,
2013-10-26 15:07:00,47.5,31.2,30.07,WNW,290,3.0,10.0,53,0.00,,,0.00,128,Wunderground v.1.15,2013-10-26 20:07:00,
2013-10-26 15:09:00,47.5,31.2,30.07,WNW,286,3.0,10.0,53,0.00,,,0.00,130,Wunderground v.1.15,2013-10-26 20:09:00,
2013-10-26 15:10:00,47.4,30.6,30.07,NW,307,3.0,4.0,52,0.00,,,0.00,127,Wunderground v.1.15,2013-10-26 20:10:00,
2013-10-26 15:11:00,47.4,30.6,30.07,NW,304,3.0,5.0,52,0.00,,,0.00,127,Wunderground v.1.15,2013-10-26 20:11:00,
2013-10-26 15:12:00,47.4,30.6,30.07,West,262,4.0,7.0,52,0.00,,,0.00,123,Wunderground v.1.15,2013-10-26 20:12:00,
2013-10-26 15:13:00,47.3,30.5,30.07,NNW,338,4.0,9.0,52,0.00,,,0.00,120,Wunderground v.1.15,2013-10-26 20:13:00,
2013-10-26 15:15:00,47.2,30.5,30.07,WNW,296,5.0,9.0,52,0.00,,,0.00,118,Wunderground v.1.15,2013-10-26 20:15:00,
2013-10-26 15:16:00,47.2,30.5,30.07,NNW,331,4.0,9.0,52,0.00,,,0.00,127,Wunderground v.1.15,2013-10-26 20:16:00,
2013-10-26 15:19:00,47.2,30.5,30.07,WNW,284,4.0,9.0,52,0.00,,,0.00,156,Wunderground v.1.15,2013-10-26 20:19:00,
2013-10-26 15:21:00,47.2,30.5,30.07,NNW,328,4.0,4.0,52,0.00,,,0.00,148,Wunderground v.1.15,2013-10-26 20:21:00,
2013-10-26 15:22:00,47.1,30.8,30.07,North,5,4.0,4.0,53,0.00,,,0.00,144,Wunderground v.1.15,2013-10-26 20:22:00,
2013-10-26 15:23:00,47.1,30.8,30.07,NNW,347,3.0,4.0,53,0.00,,,0.00,137,Wunderground v.1.15,2013-10-26 20:23:00,
2013-10-26 15:26:00,47.2,30.9,30.07,NNW,341,3.0,4.0,53,0.00,,,0.00,137,Wunderground v.1.15,2013-10-26 20:26:00,
2013-10-26 15:29:00,47.2,30.5,30.07,NNW,331,3.0,4.0,52,0.00,,,0.00,125,Wunderground v.1.15,2013-10-26 20:29:00,
2013-10-26 15:31:00,47.3,31.0,30.07,West,263,3.0,10.0,53,0.00,,,0.00,132,Wunderground v.1.15,2013-10-26 20:31:00,
2013-10-26 15:33:00,47.3,30.5,30.07,WNW,296,3.0,10.0,52,0.00,,,0.00,123,Wunderground v.1.15,2013-10-26 20:33:00,
2013-10-26 15:34:00,47.3,31.0,30.07,NNW,341,3.0,10.0,53,0.00,,,0.00,120,Wunderground v.1.15,2013-10-26 20:34:00,
2013-10-26 15:35:00,47.3,30.5,30.07,NW,311,3.0,10.0,52,0.00,,,0.00,118,Wunderground v.1.15,2013-10-26 20:35:00,
2013-10-26 15:36:00,47.4,30.6,30.07,NW,308,3.0,10.0,52,0.00,,,0.00,113,Wunderground v.1.15,2013-10-26 20:36:00,
2013-10-26 15:38:00,47.4,30.2,30.07,West,264,3.0,10.0,51,0.00,,,0.00,113,Wunderground v.1.15,2013-10-26 20:38:00,
2013-10-26 15:41:00,47.4,30.6,30.07,NNW,330,3.0,4.0,52,0.00,,,0.00,114,Wunderground v.1.15,2013-10-26 20:41:00,
2013-10-26 15:42:00,47.4,30.6,30.07,NW,309,3.0,4.0,52,0.00,,,0.00,114,Wunderground v.1.15,2013-10-26 20:42:00,
2013-10-26 15:44:00,47.4,30.2,30.07,WNW,285,3.0,7.0,51,0.00,,,0.00,113,Wunderground v.1.15,2013-10-26 20:44:00,
2013-10-26 15:46:00,47.3,30.1,30.07,WNW,290,4.0,9.0,51,0.00,,,0.00,98,Wunderground v.1.15,2013-10-26 20:46:00,
2013-10-26 15:49:00,47.3,30.5,30.08,NNW,329,4.0,9.0,52,0.00,,,0.00,91,Wunderground v.1.15,2013-10-26 20:49:00,
2013-10-26 15:50:00,47.3,30.1,30.08,West,275,4.0,4.0,51,0.00,,,0.00,90,Wunderground v.1.15,2013-10-26 20:50:00,
2013-10-26 15:51:00,47.2,30.0,30.07,NW,310,4.0,6.0,51,0.00,,,0.00,91,Wunderground v.1.15,2013-10-26 20:51:00,
2013-10-26 15:55:00,47.0,29.3,30.08,NW,310,5.0,13.0,50,0.00,,,0.00,97,Wunderground v.1.15,2013-10-26 20:55:00,
2013-10-26 15:57:00,47.0,29.3,30.08,NW,319,6.0,13.0,50,0.00,,,0.00,98,Wunderground v.1.15,2013-10-26 20:57:00,
2013-10-26 15:58:00,46.9,29.2,30.08,NNW,343,7.0,13.0,50,0.00,,,0.00,97,Wunderground v.1.15,2013-10-26 20:58:00,
2013-10-26 16:00:00,46.9,29.2,30.08,WNW,296,7.0,7.0,50,0.00,,,0.00,97,Wunderground v.1.15,2013-10-26 21:00:00,
2013-10-26 16:02:00,46.9,29.7,30.08,NW,315,6.0,7.0,51,0.00,,,0.00,98,Wunderground v.1.15,2013-10-26 21:02:00,
2013-10-26 16:04:00,46.9,29.2,30.08,NW,304,6.0,7.0,50,0.00,,,0.00,98,Wunderground v.1.15,2013-10-26 21:04:00,
2013-10-26 16:05:00,46.9,29.2,30.08,SW,230,6.0,7.0,50,0.00,,,0.00,104,Wunderground v.1.15,2013-10-26 21:05:00,
2013-10-26 16:06:00,46.9,29.2,30.08,NNW,346,5.0,7.0,50,0.00,,,0.00,111,Wunderground v.1.15,2013-10-26 21:06:00,
2013-10-26 16:09:00,46.9,29.2,30.08,WNW,297,4.0,7.0,50,0.00,,,0.00,132,Wunderground v.1.15,2013-10-26 21:09:00,
2013-10-26 16:11:00,46.9,29.2,30.08,WSW,240,4.0,5.0,50,0.00,,,0.00,130,Wunderground v.1.15,2013-10-26 21:11:00,
2013-10-26 16:12:00,46.9,29.2,30.08,SW,230,4.0,6.0,50,0.00,,,0.00,134,Wunderground v.1.15,2013-10-26 21:12:00,
2013-10-26 16:15:00,46.9,29.2,30.08,West,275,4.0,7.0,50,0.00,,,0.00,160,Wunderground v.1.15,2013-10-26 21:15:00,
2013-10-26 16:19:00,47.0,29.3,30.08,NW,325,4.0,7.0,50,0.00,,,0.00,116,Wunderground v.1.15,2013-10-26 21:19:00,
2013-10-26 16:20:00,47.0,29.3,30.08,NNW,329,4.0,4.0,50,0.00,,,0.00,102,Wunderground v.1.15,2013-10-26 21:20:00,
2013-10-26 16:22:00,47.1,29.4,30.08,NNW,328,4.0,4.0,50,0.00,,,0.00,91,Wunderground v.1.15,2013-10-26 21:22:00,
2013-10-26 16:25:00,47.1,29.4,30.08,WNW,301,3.0,5.0,50,0.00,,,0.00,86,Wunderground v.1.15,2013-10-26 21:25:00,
2013-10-26 16:26:00,47.1,29.4,30.09,West,269,3.0,5.0,50,0.00,,,0.00,84,Wunderground v.1.15,2013-10-26 21:26:00,
2013-10-26 16:29:00,47.1,29.4,30.09,NNW,329,3.0,5.0,50,0.00,,,0.00,83,Wunderground v.1.15,2013-10-26 21:29:00,
2013-10-26 16:30:00,47.1,29.4,30.09,NNW,336,3.0,4.0,50,0.00,,,0.00,84,Wunderground v.1.15,2013-10-26 21:30:00,
2013-10-26 16:31:00,47.1,29.4,30.09,NW,311,3.0,4.0,50,0.00,,,0.00,86,Wunderground v.1.15,2013-10-26 21:31:00,
2013-10-26 16:32:00,47.0,29.3,30.08,NNW,339,4.0,8.0,50,0.00,,,0.00,88,Wunderground v.1.15,2013-10-26 21:32:00,
2013-10-26 16:35:00,47.0,29.3,30.09,NW,317,5.0,8.0,50,0.00,,,0.00,93,Wunderground v.1.15,2013-10-26 21:35:00,
2013-10-26 16:36:00,47.0,29.3,30.09,NW,317,4.0,8.0,50,0.00,,,0.00,91,Wunderground v.1.15,2013-10-26 21:36:00,
2013-10-26 16:38:00,47.0,29.8,30.09,NW,317,4.0,8.0,51,0.00,,,0.00,84,Wunderground v.1.15,2013-10-26 21:38:00,
2013-10-26 16:40:00,47.0,29.8,30.09,NW,309,4.0,5.0,51,0.00,,,0.00,76,Wunderground v.1.15,2013-10-26 21:40:00,
2013-10-26 16:41:00,47.0,29.3,30.09,West,266,3.0,5.0,50,0.00,,,0.00,72,Wunderground v.1.15,2013-10-26 21:41:00,
2013-10-26 16:44:00,46.9,29.2,30.09,West,273,3.0,5.0,50,0.00,,,0.00,69,Wunderground v.1.15,2013-10-26 21:44:00,
2013-10-26 16:45:00,46.9,29.2,30.09,West,277,3.0,5.0,50,0.00,,,0.00,72,Wunderground v.1.15,2013-10-26 21:45:00,
2013-10-26 16:48:00,46.9,29.2,30.09,West,264,4.0,5.0,50,0.00,,,0.00,174,Wunderground v.1.15,2013-10-26 21:48:00,
2013-10-26 16:49:00,46.9,29.2,30.09,WSW,246,4.0,5.0,50,0.00,,,0.00,167,Wunderground v.1.15,2013-10-26 21:49:00,
2013-10-26 16:53:00,47.0,29.3,30.09,NW,306,3.0,4.0,50,0.00,,,0.00,62,Wunderground v.1.15,2013-10-26 21:53:00,
2013-10-26 16:55:00,47.1,29.4,30.09,WSW,238,2.0,7.0,50,0.00,,,0.00,56,Wunderground v.1.15,2013-10-26 21:55:00,
2013-10-26 16:56:00,47.1,29.4,30.09,WSW,238,2.0,7.0,50,0.00,,,0.00,56,Wunderground v.1.15,2013-10-26 21:56:00,
2013-10-26 16:57:00,47.1,29.4,30.09,WNW,297,2.0,7.0,50,0.00,,,0.00,56,Wunderground v.1.15,2013-10-26 21:57:00,
2013-10-26 16:59:00,47.1,28.9,30.09,NNW,329,2.0,7.0,49,0.00,,,0.00,58,Wunderground v.1.15,2013-10-26 21:59:00,
2013-10-26 17:00:00,47.0,28.8,30.09,NNW,327,3.0,3.0,49,0.00,,,0.00,60,Wunderground v.1.15,2013-10-26 22:00:00,
2013-10-26 17:02:00,47.0,29.3,30.09,NNW,327,3.0,3.0,50,0.00,,,0.00,62,Wunderground v.1.15,2013-10-26 22:02:00,
2013-10-26 17:03:00,47.0,29.3,30.09,NW,321,3.0,3.0,50,0.00,,,0.00,63,Wunderground v.1.15,2013-10-26 22:03:00,
2013-10-26 17:06:00,46.9,29.2,30.09,West,267,3.0,8.0,50,0.00,,,0.00,60,Wunderground v.1.15,2013-10-26 22:06:00,
2013-10-26 17:07:00,46.9,29.2,30.09,WNW,298,3.0,8.0,50,0.00,,,0.00,56,Wunderground v.1.15,2013-10-26 22:07:00,
2013-10-26 17:08:00,46.9,29.2,30.09,West,262,3.0,8.0,50,0.00,,,0.00,53,Wunderground v.1.15,2013-10-26 22:08:00,
2013-10-26 17:11:00,46.7,29.0,30.09,West,276,4.0,4.0,50,0.00,,,0.00,49,Wunderground v.1.15,2013-10-26 22:11:00,
2013-10-26 17:12:00,46.7,29.0,30.10,SSW,200,4.0,8.0,50,0.00,,,0.00,49,Wunderground v.1.15,2013-10-26 22:12:00,
2013-10-26 17:14:00,46.6,28.9,30.10,WNW,301,4.0,8.0,50,0.00,,,0.00,47,Wunderground v.1.15,2013-10-26 22:14:00,
2013-10-26 17:17:00,46.5,29.3,30.10,NW,315,4.0,8.0,51,0.00,,,0.00,44,Wunderground v.1.15,2013-10-26 22:17:00,
2013-10-26 17:19:00,46.5,29.3,30.10,WNW,284,3.0,8.0,51,0.00,,,0.00,42,Wunderground v.1.15,2013-10-26 22:19:00,
2013-10-26 17:20:00,46.4,29.2,30.10,WSW,254,3.0,4.0,51,0.00,,,0.00,40,Wunderground v.1.15,2013-10-26 22:20:00,
2013-10-26 17:21:00,46.4,29.2,30.09,WSW,253,3.0,4.0,51,0.00,,,0.00,40,Wunderground v.1.15,2013-10-26 22:21:00,
2013-10-26 17:22:00,46.4,29.2,30.10,WSW,255,2.0,4.0,51,0.00,,,0.00,39,Wunderground v.1.15,2013-10-26 22:22:00,
2013-10-26 17:25:00,46.3,29.1,30.10,WNW,286,2.0,4.0,51,0.00,,,0.00,35,Wunderground v.1.15,2013-10-26 22:25:00,
2013-10-26 17:26:00,46.3,29.1,30.10,West,261,2.0,4.0,51,0.00,,,0.00,35,Wunderground v.1.15,2013-10-26 22:26:00,
2013-10-26 17:29:00,46.2,29.1,30.10,West,265,2.0,4.0,51,0.00,,,0.00,35,Wunderground v.1.15,2013-10-26 22:29:00,
2013-10-26 17:30:00,46.1,29.0,30.10,West,268,2.0,2.0,51,0.00,,,0.00,33,Wunderground v.1.15,2013-10-26 22:30:00,
2013-10-26 17:31:00,46.1,29.4,30.10,NW,321,2.0,3.0,52,0.00,,,0.00,32,Wunderground v.1.15,2013-10-26 22:31:00,
2013-10-26 17:34:00,46.1,29.0,30.10,NW,317,2.0,8.0,51,0.00,,,0.00,26,Wunderground v.1.15,2013-10-26 22:34:00,
2013-10-26 17:35:00,46.0,28.9,30.10,West,275,2.0,8.0,51,0.00,,,0.00,25,Wunderground v.1.15,2013-10-26 22:35:00,
2013-10-26 17:36:00,46.0,29.3,30.10,West,275,2.0,8.0,52,0.00,,,0.00,25,Wunderground v.1.15,2013-10-26 22:36:00,
2013-10-26 17:37:00,46.0,29.3,30.10,NNW,327,2.0,8.0,52,0.00,,,0.00,23,Wunderground v.1.15,2013-10-26 22:37:00,
2013-10-26 17:39:00,45.9,29.2,30.10,NW,306,2.0,8.0,52,0.00,,,0.00,23,Wunderground v.1.15,2013-10-26 22:39:00,
2013-10-26 17:43:00,45.8,29.2,30.10,NW,305,2.0,2.0,52,0.00,,,0.00,21,Wunderground v.1.15,2013-10-26 22:43:00,
2013-10-26 17:45:00,45.8,29.2,30.10,NW,304,2.0,2.0,52,0.00,,,0.00,19,Wunderground v.1.15,2013-10-26 22:45:00,
2013-10-26 17:46:00,45.8,29.2,30.10,NNW,331,2.0,2.0,52,0.00,,,0.00,18,Wunderground v.1.15,2013-10-26 22:46:00,
2013-10-26 17:47:00,45.7,29.1,30.10,NNW,331,2.0,2.0,52,0.00,,,0.00,18,Wunderground v.1.15,2013-10-26 22:47:00,
2013-10-26 17:51:00,45.6,29.0,30.10,NNW,328,2.0,3.0,52,0.00,,,0.00,9,Wunderground v.1.15,2013-10-26 22:51:00,
2013-10-26 17:52:00,45.6,29.0,30.10,NNW,328,2.0,3.0,52,0.00,,,0.00,7,Wunderground v.1.15,2013-10-26 22:52:00,
2013-10-26 17:54:00,45.5,28.9,30.10,NNW,327,2.0,3.0,52,0.00,,,0.00,7,Wunderground v.1.15,2013-10-26 22:54:00,
2013-10-26 17:56:00,45.4,28.8,30.10,NW,311,2.0,3.0,52,0.00,,,0.00,5,Wunderground v.1.15,2013-10-26 22:56:00,
2013-10-26 17:57:00,45.4,28.8,30.10,NW,311,2.0,3.0,52,0.00,,,0.00,5,Wunderground v.1.15,2013-10-26 22:57:00,
2013-10-26 17:59:00,45.3,28.7,30.10,WNW,301,2.0,3.0,52,0.00,,,0.00,0,Wunderground v.1.15,2013-10-26 22:59:00,
2013-10-26 18:01:00,45.2,29.1,30.11,WNW,301,2.0,2.0,53,0.00,,,0.00,0,Wunderground v.1.15,2013-10-26 23:01:00,
2013-10-26 18:04:00,45.1,29.0,30.11,WNW,302,2.0,2.0,53,0.00,,,0.00,0,Wunderground v.1.15,2013-10-26 23:04:00,
2013-10-26 18:06:00,45.0,28.9,30.11,WNW,302,1.0,3.0,53,0.00,,,0.00,0,Wunderground v.1.15,2013-10-26 23:06:00,
2013-10-26 18:09:00,44.8,28.7,30.11,WNW,296,1.0,4.0,53,0.00,,,0.00,0,Wunderground v.1.15,2013-10-26 23:09:00,
2013-10-26 18:12:00,44.7,29.1,30.11,NW,306,1.0,4.0,54,0.00,,,0.00,0,Wunderground v.1.15,2013-10-26 23:12:00,
2013-10-26 18:13:00,44.7,29.1,30.11,NW,306,1.0,4.0,54,0.00,,,0.00,0,Wunderground v.1.15,2013-10-26 23:13:00,
2013-10-26 18:14:00,44.7,29.1,30.11,NW,306,1.0,4.0,54,0.00,,,0.00,0,Wunderground v.1.15,2013-10-26 23:14:00,
2013-10-26 18:15:00,44.7,29.1,30.11,NW,306,1.0,4.0,54,0.00,,,0.00,0,Wunderground v.1.15,2013-10-26 23:15:00,
2013-10-26 18:16:00,44.6,29.0,30.11,NW,306,1.0,4.0,54,0.00,,,0.00,0,Wunderground v.1.15,2013-10-26 23:16:00,
2013-10-26 18:18:00,44.6,29.0,30.11,WNW,302,0.0,4.0,54,0.00,,,0.00,0,Wunderground v.1.15,2013-10-26 23:18:00,
2013-10-26 18:20:00,44.6,29.0,30.11,WSW,255,1.0,4.0,54,0.00,,,0.00,0,Wunderground v.1.15,2013-10-26 23:20:00,
2013-10-26 18:21:00,44.5,28.9,30.11,WNW,284,1.0,4.0,54,0.00,,,0.00,0,Wunderground v.1.15,2013-10-26 23:21:00,
2013-10-26 18:24:00,44.5,28.9,30.11,WNW,284,1.0,4.0,54,0.00,,,0.00,0,Wunderground v.1.15,2013-10-26 23:24:00,
2013-10-26 18:25:00,44.5,28.9,30.11,West,281,1.0,4.0,54,0.00,,,0.00,0,Wunderground v.1.15,2013-10-26 23:25:00,
2013-10-26 18:30:00,44.4,28.8,30.11,West,279,2.0,2.0,54,0.00,,,0.00,0,Wunderground v.1.15,2013-10-26 23:30:00,
2013-10-26 18:31:00,44.3,28.7,30.11,West,279,2.0,2.0,54,0.00,,,0.00,0,Wunderground v.1.15,2013-10-26 23:31:00,
2013-10-26 18:33:00,44.3,29.1,30.11,West,265,2.0,3.0,55,0.00,,,0.00,0,Wunderground v.1.15,2013-10-26 23:33:00,
2013-10-26 18:34:00,44.3,29.1,30.11,West,279,2.0,5.0,55,0.00,,,0.00,0,Wunderground v.1.15,2013-10-26 23:34:00,
2013-10-26 18:35:00,44.3,29.1,30.11,WNW,300,2.0,5.0,55,0.00,,,0.00,0,Wunderground v.1.15,2013-10-26 23:35:00,
2013-10-26 18:39:00,44.2,29.0,30.11,WNW,296,2.0,5.0,55,0.00,,,0.00,0,Wunderground v.1.15,2013-10-26 23:39:00,
2013-10-26 18:41:00,44.1,28.9,30.12,WNW,296,2.0,2.0,55,0.00,,,0.00,0,Wunderground v.1.15,2013-10-26 23:41:00,
2013-10-26 18:42:00,44.1,28.9,30.12,WNW,296,2.0,2.0,55,0.00,,,0.00,0,Wunderground v.1.15,2013-10-26 23:42:00,
2013-10-26 18:45:00,44.0,28.9,30.12,WNW,296,1.0,2.0,55,0.00,,,0.00,0,Wunderground v.1.15,2013-10-26 23:45:00,
2013-10-26 18:46:00,44.0,28.9,30.12,WNW,296,1.0,2.0,55,0.00,,,0.00,0,Wunderground v.1.15,2013-10-26 23:46:00,
2013-10-26 18:50:00,44.0,28.9,30.12,WNW,296,1.0,1.0,55,0.00,,,0.00,0,Wunderground v.1.15,2013-10-26 23:50:00,
2013-10-26 18:51:00,43.9,28.8,30.12,WNW,296,1.0,1.0,55,0.00,,,0.00,0,Wunderground v.1.15,2013-10-26 23:51:00,
2013-10-26 18:52:00,43.9,28.8,30.12,WNW,296,1.0,1.0,55,0.00,,,0.00,0,Wunderground v.1.15,2013-10-26 23:52:00,
2013-10-26 18:54:00,43.9,28.8,30.12,WNW,296,1.0,1.0,55,0.00,,,0.00,0,Wunderground v.1.15,2013-10-26 23:54:00,
2013-10-26 18:55:00,43.8,29.1,30.12,WNW,296,1.0,1.0,56,0.00,,,0.00,0,Wunderground v.1.15,2013-10-26 23:55:00,
2013-10-26 18:56:00,43.8,28.7,30.12,WNW,296,1.0,1.0,55,0.00,,,0.00,0,Wunderground v.1.15,2013-10-26 23:56:00,
2013-10-26 18:58:00,43.8,28.7,30.12,WNW,296,1.0,1.0,55,0.00,,,0.00,0,Wunderground v.1.15,2013-10-26 23:58:00,
2013-10-26 19:00:00,43.8,29.1,30.12,WNW,296,1.0,1.0,56,0.00,,,0.00,0,Wunderground v.1.15,2013-10-27 00:00:00,
2013-10-26 19:02:00,43.8,29.1,30.13,WNW,296,1.0,1.0,56,0.00,,,0.00,0,Wunderground v.1.15,2013-10-27 00:02:00,
2013-10-26 19:05:00,43.8,29.1,30.13,WNW,296,0.0,1.0,56,0.00,,,0.00,0,Wunderground v.1.15,2013-10-27 00:05:00,
2013-10-26 19:06:00,43.7,29.0,30.13,WNW,296,0.0,1.0,56,0.00,,,0.00,0,Wunderground v.1.15,2013-10-27 00:06:00,
2013-10-26 19:07:00,43.7,29.0,30.13,WNW,296,0.0,1.0,56,0.00,,,0.00,0,Wunderground v.1.15,2013-10-27 00:07:00,
2013-10-26 19:10:00,43.7,29.5,30.13,WNW,296,0.0,0.0,57,0.00,,,0.00,0,Wunderground v.1.15,2013-10-27 00:10:00,
2013-10-26 19:12:00,43.7,29.5,30.13,WNW,296,0.0,0.0,57,0.00,,,0.00,0,Wunderground v.1.15,2013-10-27 00:12:00,
2013-10-26 19:15:00,43.6,29.4,30.13,WNW,296,0.0,0.0,57,0.00,,,0.00,0,Wunderground v.1.15,2013-10-27 00:15:00,
2013-10-26 19:16:00,43.6,29.4,30.13,WNW,296,0.0,0.0,57,0.00,,,0.00,0,Wunderground v.1.15,2013-10-27 00:16:00,
2013-10-26 19:19:00,43.6,29.4,30.13,WNW,296,0.0,1.0,57,0.00,,,0.00,0,Wunderground v.1.15,2013-10-27 00:19:00,
2013-10-26 19:21:00,43.6,29.4,30.13,WNW,296,0.0,1.0,57,0.00,,,0.00,0,Wunderground v.1.15,2013-10-27 00:21:00,
2013-10-26 19:22:00,43.5,29.3,30.13,WNW,296,0.0,1.0,57,0.00,,,0.00,0,Wunderground v.1.15,2013-10-27 00:22:00,
2013-10-26 19:24:00,43.5,29.7,30.13,WNW,296,0.0,1.0,58,0.00,,,0.00,0,Wunderground v.1.15,2013-10-27 00:24:00,
2013-10-26 19:26:00,43.5,29.7,30.13,WNW,296,0.0,1.0,58,0.00,,,0.00,0,Wunderground v.1.15,2013-10-27 00:26:00,
2013-10-26 19:28:00,43.5,29.7,30.13,WNW,296,0.0,1.0,58,0.00,,,0.00,0,Wunderground v.1.15,2013-10-27 00:28:00,
2013-10-26 19:29:00,43.5,29.3,30.13,WNW,296,0.0,1.0,57,0.00,,,0.00,0,Wunderground v.1.15,2013-10-27 00:29:00,
2013-10-26 19:31:00,43.5,29.7,30.13,WNW,296,0.0,0.0,58,0.00,,,0.00,0,Wunderground v.1.15,2013-10-27 00:31:00,
2013-10-26 19:32:00,43.4,29.6,30.13,WNW,296,0.0,0.0,58,0.00,,,0.00,0,Wunderground v.1.15,2013-10-27 00:32:00,
2013-10-26 19:33:00,43.4,30.0,30.13,WNW,296,0.0,0.0,59,0.00,,,0.00,0,Wunderground v.1.15,2013-10-27 00:33:00,
2013-10-26 19:36:00,43.4,30.0,30.13,WNW,296,0.0,0.0,59,0.00,,,0.00,0,Wunderground v.1.15,2013-10-27 00:36:00,
2013-10-26 19:39:00,43.4,30.0,30.13,WNW,296,0.0,0.0,59,0.00,,,0.00,0,Wunderground v.1.15,2013-10-27 00:39:00,
2013-10-26 19:41:00,43.3,29.9,30.14,WNW,296,0.0,0.0,59,0.00,,,0.00,0,Wunderground v.1.15,2013-10-27 00:41:00,
2013-10-26 19:42:00,43.3,29.9,30.14,WNW,296,0.0,0.0,59,0.00,,,0.00,0,Wunderground v.1.15,2013-10-27 00:42:00,
2013-10-26 19:44:00,43.3,29.9,30.13,WNW,296,0.0,0.0,59,0.00,,,0.00,0,Wunderground v.1.15,2013-10-27 00:44:00,
2013-10-26 19:47:00,43.2,29.8,30.13,WNW,296,0.0,3.0,59,0.00,,,0.00,0,Wunderground v.1.15,2013-10-27 00:47:00,
2013-10-26 19:48:00,43.2,29.8,30.13,WNW,296,0.0,3.0,59,0.00,,,0.00,0,Wunderground v.1.15,2013-10-27 00:48:00,
2013-10-26 19:49:00,43.2,29.8,30.13,WNW,296,0.0,3.0,59,0.00,,,0.00,0,Wunderground v.1.15,2013-10-27 00:49:00,
2013-10-26 19:51:00,43.1,29.7,30.13,WNW,296,0.0,1.0,59,0.00,,,0.00,0,Wunderground v.1.15,2013-10-27 00:51:00,
2013-10-26 19:53:00,43.1,29.7,30.13,WNW,296,0.0,1.0,59,0.00,,,0.00,0,Wunderground v.1.15,2013-10-27 00:53:00,
2013-10-26 19:56:00,43.1,29.7,30.13,WNW,296,0.0,1.0,59,0.00,,,0.00,0,Wunderground v.1.15,2013-10-27 00:56:00,
2013-10-26 19:57:00,43.1,29.7,30.13,WNW,296,0.0,1.0,59,0.00,,,0.00,0,Wunderground v.1.15,2013-10-27 00:57:00,
2013-10-26 19:59:00,43.1,29.7,30.13,WNW,296,0.0,1.0,59,0.00,,,0.00,0,Wunderground v.1.15,2013-10-27 00:59:00,
2013-10-26 20:00:00,43.1,29.7,30.13,WNW,296,0.0,0.0,59,0.00,,,0.00,0,Wunderground v.1.15,2013-10-27 01:00:00,
2013-10-26 20:01:00,43.1,29.7,30.13,WNW,296,0.0,0.0,59,0.00,,,0.00,0,Wunderground v.1.15,2013-10-27 01:01:00,
2013-10-26 20:04:00,43.1,30.1,30.13,WNW,296,0.0,0.0,60,0.00,,,0.00,0,Wunderground v.1.15,2013-10-27 01:04:00,
2013-10-26 20:06:00,43.0,30.1,30.13,WNW,296,0.0,0.0,60,0.00,,,0.00,0,Wunderground v.1.15,2013-10-27 01:06:00,
2013-10-26 20:09:00,43.0,30.1,30.13,WNW,296,0.0,0.0,60,0.00,,,0.00,0,Wunderground v.1.15,2013-10-27 01:09:00,
2013-10-26 20:10:00,43.0,30.1,30.13,WNW,296,0.0,0.0,60,0.00,,,0.00,0,Wunderground v.1.15,2013-10-27 01:10:00,
2013-10-26 20:11:00,43.0,30.1,30.13,WNW,296,0.0,0.0,60,0.00,,,0.00,0,Wunderground v.1.15,2013-10-27 01:11:00,
2013-10-26 20:12:00,43.0,30.1,30.13,WNW,296,0.0,0.0,60,0.00,,,0.00,0,Wunderground v.1.15,2013-10-27 01:12:00,
2013-10-26 20:14:00,43.0,30.1,30.13,WNW,296,0.0,0.0,60,0.00,,,0.00,0,Wunderground v.1.15,2013-10-27 01:14:00,
2013-10-26 20:15:00,43.0,30.1,30.13,WNW,296,0.0,1.0,60,0.00,,,0.00,0,Wunderground v.1.15,2013-10-27 01:15:00,
2013-10-26 20:16:00,42.9,30.0,30.13,WNW,296,0.0,2.0,60,0.00,,,0.00,0,Wunderground v.1.15,2013-10-27 01:16:00,
2013-10-26 20:19:00,42.9,30.0,30.13,WNW,296,0.0,2.0,60,0.00,,,0.00,0,Wunderground v.1.15,2013-10-27 01:19:00,
2013-10-26 20:20:00,42.9,30.0,30.13,WNW,296,0.0,0.0,60,0.00,,,0.00,0,Wunderground v.1.15,2013-10-27 01:20:00,
2013-10-26 20:21:00,42.9,30.0,30.13,WNW,296,0.0,0.0,60,0.00,,,0.00,0,Wunderground v.1.15,2013-10-27 01:21:00,
2013-10-26 20:25:00,42.8,30.3,30.13,WNW,296,0.0,0.0,61,0.00,,,0.00,0,Wunderground v.1.15,2013-10-27 01:25:00,
2013-10-26 20:27:00,42.8,30.7,30.13,WNW,296,0.0,2.0,62,0.00,,,0.00,0,Wunderground v.1.15,2013-10-27 01:27:00,
2013-10-26 20:32:00,42.7,30.2,30.13,WNW,296,0.0,1.0,61,0.00,,,0.00,0,Wunderground v.1.15,2013-10-27 01:32:00,
2013-10-26 20:34:00,42.7,30.6,30.13,WNW,296,0.0,1.0,62,0.00,,,0.00,0,Wunderground v.1.15,2013-10-27 01:34:00,
2013-10-26 20:36:00,42.6,30.1,30.13,WNW,296,0.0,1.0,61,0.00,,,0.00,0,Wunderground v.1.15,2013-10-27 01:36:00,
2013-10-26 20:37:00,42.6,30.1,30.13,WNW,296,0.0,1.0,61,0.00,,,0.00,0,Wunderground v.1.15,2013-10-27 01:37:00,
2013-10-26 20:40:00,42.5,30.4,30.12,WNW,296,0.0,0.0,62,0.00,,,0.00,0,Wunderground v.1.15,2013-10-27 01:40:00,
2013-10-26 20:44:00,42.4,30.3,30.13,WNW,296,0.0,0.0,62,0.00,,,0.00,0,Wunderground v.1.15,2013-10-27 01:44:00,
2013-10-26 20:45:00,42.4,30.7,30.13,WNW,296,0.0,0.0,63,0.00,,,0.00,0,Wunderground v.1.15,2013-10-27 01:45:00,
2013-10-26 20:46:00,42.4,30.7,30.13,WNW,296,0.0,0.0,63,0.00,,,0.00,0,Wunderground v.1.15,2013-10-27 01:46:00,
2013-10-26 20:47:00,42.4,30.7,30.13,WNW,296,0.0,0.0,63,0.00,,,0.00,0,Wunderground v.1.15,2013-10-27 01:47:00,
2013-10-26 20:49:00,42.3,31.0,30.13,WNW,296,0.0,0.0,64,0.00,,,0.00,0,Wunderground v.1.15,2013-10-27 01:49:00,
2013-10-26 20:52:00,42.2,30.9,30.13,WNW,296,0.0,0.0,64,0.00,,,0.00,0,Wunderground v.1.15,2013-10-27 01:52:00,
2013-10-26 20:54:00,42.2,30.9,30.13,WNW,296,0.0,0.0,64,0.00,,,0.00,0,Wunderground v.1.15,2013-10-27 01:54:00,
2013-10-26 20:55:00,42.1,30.8,30.13,WNW,296,0.0,0.0,64,0.00,,,0.00,0,Wunderground v.1.15,2013-10-27 01:55:00,
2013-10-26 20:57:00,42.1,30.8,30.13,WNW,296,0.0,0.0,64,0.00,,,0.00,0,Wunderground v.1.15,2013-10-27 01:57:00,
2013-10-26 20:59:00,42.0,30.7,30.13,WNW,296,0.0,0.0,64,0.00,,,0.00,0,Wunderground v.1.15,2013-10-27 01:59:00,
2013-10-26 21:01:00,42.0,30.7,30.13,WNW,296,0.0,0.0,64,0.00,,,0.00,0,Wunderground v.1.15,2013-10-27 02:01:00,
2013-10-26 21:02:00,41.9,30.6,30.13,WNW,296,0.0,0.0,64,0.00,,,0.00,0,Wunderground v.1.15,2013-10-27 02:02:00,
2013-10-26 21:04:00,41.9,30.6,30.13,WNW,296,0.0,1.0,64,0.00,,,0.00,0,Wunderground v.1.15,2013-10-27 02:04:00,
2013-10-26 21:07:00,41.8,30.5,30.13,WNW,296,0.0,2.0,64,0.00,,,0.00,0,Wunderground v.1.15,2013-10-27 02:07:00,
2013-10-26 21:09:00,41.8,30.5,30.13,WNW,296,0.0,2.0,64,0.00,,,0.00,0,Wunderground v.1.15,2013-10-27 02:09:00,
2013-10-26 21:12:00,41.8,30.5,30.13,WNW,296,0.0,2.0,64,0.00,,,0.00,0,Wunderground v.1.15,2013-10-27 02:12:00,
2013-10-26 21:13:00,41.7,30.4,30.13,WNW,296,1.0,2.0,64,0.00,,,0.00,0,Wunderground v.1.15,2013-10-27 02:13:00,
2013-10-26 21:14:00,41.7,30.4,30.13,WNW,296,1.0,2.0,64,0.00,,,0.00,0,Wunderground v.1.15,2013-10-27 02:14:00,
2013-10-26 21:15:00,41.7,30.4,30.13,WNW,296,1.0,2.0,64,0.00,,,0.00,0,Wunderground v.1.15,2013-10-27 02:15:00,
2013-10-26 21:20:00,41.6,30.3,30.13,WNW,296,1.0,1.0,64,0.00,,,0.00,0,Wunderground v.1.15,2013-10-27 02:20:00,
2013-10-26 21:21:00,41.6,30.3,30.13,WNW,296,1.0,2.0,64,0.00,,,0.00,0,Wunderground v.1.15,2013-10-27 02:21:00,
2013-10-26 21:23:00,41.6,30.7,30.13,WNW,296,1.0,2.0,65,0.00,,,0.00,0,Wunderground v.1.15,2013-10-27 02:23:00,
2013-10-26 21:24:00,41.6,30.7,30.13,WNW,296,1.0,2.0,65,0.00,,,0.00,0,Wunderground v.1.15,2013-10-27 02:24:00,
2013-10-26 21:25:00,41.6,30.7,30.13,WNW,296,1.0,2.0,65,0.00,,,0.00,0,Wunderground v.1.15,2013-10-27 02:25:00,
2013-10-26 21:30:00,41.5,30.6,30.13,WNW,296,0.0,2.0,65,0.00,,,0.00,0,Wunderground v.1.15,2013-10-27 02:30:00,
2013-10-26 21:31:00,41.5,30.6,30.13,WNW,296,1.0,2.0,65,0.00,,,0.00,0,Wunderground v.1.15,2013-10-27 02:31:00,
2013-10-26 21:34:00,41.4,30.9,30.13,WNW,296,1.0,2.0,66,0.00,,,0.00,0,Wunderground v.1.15,2013-10-27 02:34:00,
2013-10-26 21:36:00,41.3,30.8,30.13,WNW,296,1.0,2.0,66,0.00,,,0.00,0,Wunderground v.1.15,2013-10-27 02:36:00,
2013-10-26 21:39:00,41.2,30.7,30.13,WNW,296,1.0,2.0,66,0.00,,,0.00,0,Wunderground v.1.15,2013-10-27 02:39:00,
2013-10-26 21:41:00,41.1,30.6,30.13,WNW,296,1.0,1.0,66,0.00,,,0.00,0,Wunderground v.1.15,2013-10-27 02:41:00,
2013-10-26 21:42:00,41.1,30.6,30.13,WNW,296,1.0,1.0,66,0.00,,,0.00,0,Wunderground v.1.15,2013-10-27 02:42:00,
2013-10-26 21:43:00,41.1,30.6,30.13,WNW,296,0.0,1.0,66,0.00,,,0.00,0,Wunderground v.1.15,2013-10-27 02:43:00,
2013-10-26 21:46:00,41.0,30.5,30.13,WNW,296,0.0,1.0,66,0.00,,,0.00,0,Wunderground v.1.15,2013-10-27 02:46:00,
2013-10-26 21:47:00,41.0,30.5,30.13,WNW,296,0.0,1.0,66,0.00,,,0.00,0,Wunderground v.1.15,2013-10-27 02:47:00,
2013-10-26 21:49:00,40.9,30.8,30.13,WNW,296,0.0,1.0,67,0.00,,,0.00,0,Wunderground v.1.15,2013-10-27 02:49:00,
2013-10-26 21:51:00,40.9,30.8,30.13,WNW,296,0.0,0.0,67,0.00,,,0.00,0,Wunderground v.1.15,2013-10-27 02:51:00,
2013-10-26 21:52:00,40.9,30.8,30.13,WNW,296,0.0,0.0,67,0.00,,,0.00,0,Wunderground v.1.15,2013-10-27 02:52:00,
2013-10-26 21:53:00,40.9,30.8,30.13,WNW,296,0.0,0.0,67,0.00,,,0.00,0,Wunderground v.1.15,2013-10-27 02:53:00,
2013-10-26 21:55:00,40.8,30.7,30.13,WNW,296,0.0,0.0,67,0.00,,,0.00,0,Wunderground v.1.15,2013-10-27 02:55:00,
2013-10-26 21:57:00,40.8,30.7,30.13,WNW,296,0.0,0.0,67,0.00,,,0.00,0,Wunderground v.1.15,2013-10-27 02:57:00,
2013-10-26 21:59:00,40.7,30.6,30.13,WNW,296,0.0,0.0,67,0.00,,,0.00,0,Wunderground v.1.15,2013-10-27 02:59:00,
2013-10-26 22:02:00,40.6,30.5,30.13,WNW,296,0.0,0.0,67,0.00,,,0.00,0,Wunderground v.1.15,2013-10-27 03:02:00,
2013-10-26 22:03:00,40.6,30.9,30.13,WNW,296,0.0,0.0,68,0.00,,,0.00,0,Wunderground v.1.15,2013-10-27 03:03:00,
2013-10-26 22:04:00,40.6,30.9,30.13,WNW,296,0.0,0.0,68,0.00,,,0.00,0,Wunderground v.1.15,2013-10-27 03:04:00,
2013-10-26 22:07:00,40.5,30.8,30.13,WNW,296,0.0,0.0,68,0.00,,,0.00,0,Wunderground v.1.15,2013-10-27 03:07:00,
2013-10-26 22:09:00,40.4,30.7,30.13,WNW,296,0.0,0.0,68,0.00,,,0.00,0,Wunderground v.1.15,2013-10-27 03:09:00,
2013-10-26 22:10:00,40.4,30.7,30.13,WNW,296,0.0,0.0,68,0.00,,,0.00,0,Wunderground v.1.15,2013-10-27 03:10:00,
2013-10-26 22:12:00,40.3,30.9,30.13,WNW,296,0.0,0.0,69,0.00,,,0.00,0,Wunderground v.1.15,2013-10-27 03:12:00,
2013-10-26 22:14:00,40.2,30.8,30.13,WNW,296,0.0,0.0,69,0.00,,,0.00,0,Wunderground v.1.15,2013-10-27 03:14:00,
2013-10-26 22:15:00,40.1,30.7,30.13,WNW,296,0.0,0.0,69,0.00,,,0.00,0,Wunderground v.1.15,2013-10-27 03:15:00,
2013-10-26 22:16:00,40.1,30.7,30.13,WNW,296,0.0,0.0,69,0.00,,,0.00,0,Wunderground v.1.15,2013-10-27 03:16:00,
2013-10-26 22:17:00,40.0,30.6,30.13,WNW,296,0.0,0.0,69,0.00,,,0.00,0,Wunderground v.1.15,2013-10-27 03:17:00,
2013-10-26 22:20:00,39.8,30.5,30.13,WNW,296,0.0,0.0,69,0.00,,,0.00,0,Wunderground v.1.15,2013-10-27 03:20:00,
2013-10-26 22:21:00,39.8,30.8,30.13,WNW,296,0.0,0.0,70,0.00,,,0.00,0,Wunderground v.1.15,2013-10-27 03:21:00,
2013-10-26 22:22:00,39.7,30.7,30.13,WNW,296,0.0,0.0,70,0.00,,,0.00,0,Wunderground v.1.15,2013-10-27 03:22:00,
2013-10-26 22:24:00,39.5,30.5,30.13,WNW,296,0.0,0.0,70,0.00,,,0.00,0,Wunderground v.1.15,2013-10-27 03:24:00,
2013-10-26 22:26:00,39.3,30.3,30.13,WNW,296,0.0,1.0,70,0.00,,,0.00,0,Wunderground v.1.15,2013-10-27 03:26:00,
2013-10-26 22:27:00,39.3,30.3,30.13,WNW,296,0.0,1.0,70,0.00,,,0.00,0,Wunderground v.1.15,2013-10-27 03:27:00,
2013-10-26 22:29:00,39.1,30.1,30.13,WNW,296,0.0,1.0,70,0.00,,,0.00,0,Wunderground v.1.15,2013-10-27 03:29:00,
2013-10-26 22:31:00,38.9,30.3,30.13,WNW,296,0.0,2.0,71,0.00,,,0.00,0,Wunderground v.1.15,2013-10-27 03:31:00,
2013-10-26 22:32:00,38.9,30.3,30.12,WNW,296,0.0,2.0,71,0.00,,,0.00,0,Wunderground v.1.15,2013-10-27 03:32:00,
2013-10-26 22:33:00,38.8,30.2,30.12,WNW,296,0.0,2.0,71,0.00,,,0.00,0,Wunderground v.1.15,2013-10-27 03:33:00,
2013-10-26 22:34:00,38.8,30.5,30.13,WNW,296,0.0,2.0,72,0.00,,,0.00,0,Wunderground v.1.15,2013-10-27 03:34:00,
2013-10-26 22:36:00,38.7,30.4,30.13,WNW,296,0.0,2.0,72,0.00,,,0.00,0,Wunderground v.1.15,2013-10-27 03:36:00,
2013-10-26 22:37:00,38.6,30.4,30.13,WNW,296,0.0,2.0,72,0.00,,,0.00,0,Wunderground v.1.15,2013-10-27 03:37:00,
2013-10-26 22:40:00,38.5,30.6,30.12,WNW,296,0.0,0.0,73,0.00,,,0.00,0,Wunderground v.1.15,2013-10-27 03:40:00,
2013-10-26 22:41:00,38.5,30.6,30.12,WNW,296,0.0,0.0,73,0.00,,,0.00,0,Wunderground v.1.15,2013-10-27 03:41:00,
2013-10-26 22:42:00,38.4,30.5,30.12,WNW,296,0.0,0.0,73,0.00,,,0.00,0,Wunderground v.1.15,2013-10-27 03:42:00,
2013-10-26 22:46:00,38.3,30.4,30.12,WNW,296,0.0,0.0,73,0.00,,,0.00,0,Wunderground v.1.15,2013-10-27 03:46:00,
2013-10-26 22:47:00,38.3,30.4,30.12,WNW,296,0.0,0.0,73,0.00,,,0.00,0,Wunderground v.1.15,2013-10-27 03:47:00,
2013-10-26 22:49:00,38.3,30.4,30.12,WNW,296,0.0,0.0,73,0.00,,,0.00,0,Wunderground v.1.15,2013-10-27 03:49:00,
2013-10-26 22:50:00,38.3,30.4,30.12,WNW,296,0.0,0.0,73,0.00,,,0.00,0,Wunderground v.1.15,2013-10-27 03:50:00,
2013-10-26 22:52:00,38.3,30.4,30.12,WNW,296,0.0,0.0,73,0.00,,,0.00,0,Wunderground v.1.15,2013-10-27 03:52:00,
2013-10-26 22:54:00,38.2,30.3,30.12,WNW,296,0.0,1.0,73,0.00,,,0.00,0,Wunderground v.1.15,2013-10-27 03:54:00,
2013-10-26 22:56:00,38.2,30.3,30.13,WNW,296,0.0,1.0,73,0.00,,,0.00,0,Wunderground v.1.15,2013-10-27 03:56:00,
2013-10-26 22:59:00,38.2,30.3,30.13,WNW,296,0.0,1.0,73,0.00,,,0.00,0,Wunderground v.1.15,2013-10-27 03:59:00,
2013-10-26 23:01:00,38.1,30.2,30.13,WNW,296,0.0,0.0,73,0.00,,,0.00,0,Wunderground v.1.15,2013-10-27 04:01:00,
2013-10-26 23:02:00,38.1,30.2,30.13,WNW,296,0.0,0.0,73,0.00,,,0.00,0,Wunderground v.1.15,2013-10-27 04:02:00,
2013-10-26 23:03:00,38.1,30.5,30.13,WNW,296,0.0,0.0,74,0.00,,,0.00,0,Wunderground v.1.15,2013-10-27 04:03:00,
2013-10-26 23:05:00,38.0,30.4,30.13,WNW,296,0.0,0.0,74,0.00,,,0.00,0,Wunderground v.1.15,2013-10-27 04:05:00,
2013-10-26 23:06:00,38.0,30.4,30.13,WNW,296,0.0,0.0,74,0.00,,,0.00,0,Wunderground v.1.15,2013-10-27 04:06:00,
2013-10-26 23:09:00,38.0,30.8,30.13,WNW,296,0.0,0.0,75,0.00,,,0.00,0,Wunderground v.1.15,2013-10-27 04:09:00,
2013-10-26 23:11:00,38.0,30.8,30.13,WNW,296,0.0,0.0,75,0.00,,,0.00,0,Wunderground v.1.15,2013-10-27 04:11:00,
2013-10-26 23:12:00,37.9,30.7,30.13,WNW,296,0.0,0.0,75,0.00,,,0.00,0,Wunderground v.1.15,2013-10-27 04:12:00,
2013-10-26 23:16:00,37.8,30.6,30.13,WNW,296,0.0,0.0,75,0.00,,,0.00,0,Wunderground v.1.15,2013-10-27 04:16:00,
2013-10-26 23:17:00,37.8,30.6,30.13,WNW,296,0.0,0.0,75,0.00,,,0.00,0,Wunderground v.1.15,2013-10-27 04:17:00,
2013-10-26 23:18:00,37.7,30.5,30.13,WNW,296,0.0,0.0,75,0.00,,,0.00,0,Wunderground v.1.15,2013-10-27 04:18:00,
2013-10-26 23:19:00,37.7,30.5,30.13,WNW,296,0.0,0.0,75,0.00,,,0.00,0,Wunderground v.1.15,2013-10-27 04:19:00,
2013-10-26 23:21:00,37.6,30.7,30.13,WNW,296,0.0,0.0,76,0.00,,,0.00,0,Wunderground v.1.15,2013-10-27 04:21:00,
2013-10-26 23:25:00,37.2,30.3,30.13,WNW,296,0.0,1.0,76,0.00,,,0.00,0,Wunderground v.1.15,2013-10-27 04:25:00,
2013-10-26 23:26:00,37.1,30.2,30.13,WNW,296,0.0,1.0,76,0.00,,,0.00,0,Wunderground v.1.15,2013-10-27 04:26:00,
2013-10-26 23:30:00,36.8,30.3,30.12,WNW,296,0.0,0.0,77,0.00,,,0.00,0,Wunderground v.1.15,2013-10-27 04:30:00,
2013-10-26 23:31:00,36.8,30.3,30.12,WNW,296,0.0,0.0,77,0.00,,,0.00,0,Wunderground v.1.15,2013-10-27 04:31:00,
2013-10-26 23:33:00,36.7,30.5,30.12,WNW,296,0.0,0.0,78,0.00,,,0.00,0,Wunderground v.1.15,2013-10-27 04:33:00,
2013-10-26 23:36:00,36.5,30.3,30.12,WNW,296,0.0,0.0,78,0.00,,,0.00,0,Wunderground v.1.15,2013-10-27 04:36:00,
2013-10-26 23:37:00,36.5,30.3,30.12,WNW,296,0.0,0.0,78,0.00,,,0.00,0,Wunderground v.1.15,2013-10-27 04:37:00,
2013-10-26 23:39:00,36.5,30.3,30.12,WNW,296,0.0,0.0,78,0.00,,,0.00,0,Wunderground v.1.15,2013-10-27 04:39:00,
2013-10-26 23:41:00,36.3,30.1,30.12,WNW,296,0.0,1.0,78,0.00,,,0.00,0,Wunderground v.1.15,2013-10-27 04:41:00,
2013-10-26 23:42:00,36.3,30.1,30.12,WNW,296,0.0,1.0,78,0.00,,,0.00,0,Wunderground v.1.15,2013-10-27 04:42:00,
2013-10-26 23:43:00,36.2,30.3,30.12,WNW,296,0.0,1.0,79,0.00,,,0.00,0,Wunderground v.1.15,2013-10-27 04:43:00,
2013-10-26 23:46:00,36.1,30.2,30.12,WNW,296,0.0,1.0,79,0.00,,,0.00,0,Wunderground v.1.15,2013-10-27 04:46:00,
2013-10-26 23:49:00,36.0,30.1,30.12,WNW,296,0.0,1.0,79,0.00,,,0.00,0,Wunderground v.1.15,2013-10-27 04:49:00,
2013-10-26 23:51:00,36.0,30.1,30.11,WNW,296,0.0,0.0,79,0.00,,,0.00,0,Wunderground v.1.15,2013-10-27 04:51:00,
2013-10-26 23:52:00,35.9,30.0,30.11,WNW,296,0.0,0.0,79,0.00,,,0.00,0,Wunderground v.1.15,2013-10-27 04:52:00,
2013-10-26 23:54:00,35.8,29.9,30.11,WNW,296,0.0,0.0,79,0.00,,,0.00,0,Wunderground v.1.15,2013-10-27 04:54:00,
2013-10-26 23:56:00,35.7,29.8,30.11,WNW,296,0.0,0.0,79,0.00,,,0.00,0,Wunderground v.1.15,2013-10-27 04:56:00,
2013-10-26 23:57:00,35.7,29.8,30.11,WNW,296,0.0,0.0,79,0.00,,,0.00,0,Wunderground v.1.15,2013-10-27 04:57:00,